Time,TemperatureF,DewpointF,PressureIn,WindDirection,WindDirectionDegrees,WindSpeedMPH,WindSpeedGustMPH,Humidity,HourlyPrecipIn,Conditions,Clouds,dailyrainin,SoftwareType,DateUTC
2013-01-11 00:01:00,37.4,14.1,29.38,SW,225,1.1,2.0,38,0.00,,,0.00,WUHU216HW,2013-01-11 07:01:00,
2013-01-11 00:02:00,37.4,14.1,29.38,SW,225,0.4,2.0,38,0.00,,,0.00,WUHU216HW,2013-01-11 07:02:00,
2013-01-11 00:04:00,37.4,14.1,29.38,SW,225,0.0,1.8,38,0.00,,,0.00,WUHU216HW,2013-01-11 07:04:00,
2013-01-11 00:06:00,37.6,14.1,29.37,WSW,248,0.7,1.8,38,0.00,,,0.00,WUHU216HW,2013-01-11 07:06:00,
2013-01-11 00:07:00,37.6,14.1,29.37,WSW,248,1.1,1.8,38,0.00,,,0.00,WUHU216HW,2013-01-11 07:07:00,
2013-01-11 00:09:00,37.6,14.1,29.37,West,270,0.2,1.8,38,0.00,,,0.00,WUHU216HW,2013-01-11 07:09:00,
2013-01-11 00:11:00,37.8,14.3,29.37,West,270,1.8,2.2,38,0.00,,,0.00,WUHU216HW,2013-01-11 07:11:00,
2013-01-11 00:13:00,37.8,14.3,29.36,West,270,1.1,2.2,38,0.00,,,0.00,WUHU216HW,2013-01-11 07:13:00,
2013-01-11 00:14:00,37.8,14.3,29.37,WSW,248,2.7,2.7,38,0.00,,,0.00,WUHU216HW,2013-01-11 07:14:00,
2013-01-11 00:16:00,37.8,14.3,29.37,West,270,2.2,3.4,38,0.00,,,0.00,WUHU216HW,2013-01-11 07:16:00,
2013-01-11 00:18:00,37.6,14.1,29.36,WSW,248,2.5,3.4,38,0.00,,,0.00,WUHU216HW,2013-01-11 07:18:00,
2013-01-11 00:19:00,37.6,14.1,29.36,WSW,248,2.7,3.4,38,0.00,,,0.00,WUHU216HW,2013-01-11 07:19:00,
2013-01-11 00:21:00,37.6,14.1,29.37,West,270,4.0,4.0,38,0.00,,,0.00,WUHU216HW,2013-01-11 07:21:00,
2013-01-11 00:23:00,37.4,14.1,29.37,West,270,3.6,4.0,38,0.00,,,0.00,WUHU216HW,2013-01-11 07:23:00,
2013-01-11 00:24:00,37.4,14.1,29.37,NW,315,2.5,4.0,38,0.00,,,0.00,WUHU216HW,2013-01-11 07:24:00,
2013-01-11 00:26:00,37.4,14.1,29.37,WNW,293,0.4,4.0,38,0.00,,,0.00,WUHU216HW,2013-01-11 07:26:00,
2013-01-11 00:28:00,37.3,13.9,29.37,West,270,0.9,4.0,38,0.00,,,0.00,WUHU216HW,2013-01-11 07:28:00,
2013-01-11 00:29:00,37.3,13.9,29.37,West,270,2.5,4.0,38,0.00,,,0.00,WUHU216HW,2013-01-11 07:29:00,
2013-01-11 00:32:00,37.3,14.5,29.37,WNW,293,2.2,3.6,39,0.00,,,0.00,WUHU216HW,2013-01-11 07:32:00,
2013-01-11 00:34:00,37.1,14.3,29.37,WNW,293,2.5,2.7,39,0.00,,,0.00,WUHU216HW,2013-01-11 07:34:00,
2013-01-11 00:37:00,37.1,14.3,29.36,West,270,3.4,3.4,39,0.00,,,0.00,WUHU216HW,2013-01-11 07:37:00,
2013-01-11 00:39:00,37.1,14.3,29.36,West,270,3.4,3.4,39,0.00,,,0.00,WUHU216HW,2013-01-11 07:39:00,
2013-01-11 00:40:00,37.1,14.3,29.36,West,270,3.6,3.6,39,0.00,,,0.00,WUHU216HW,2013-01-11 07:40:00,
2013-01-11 00:42:00,37.1,14.3,29.36,WSW,248,3.8,4.3,39,0.00,,,0.00,WUHU216HW,2013-01-11 07:42:00,
2013-01-11 00:44:00,36.9,14.9,29.36,SW,225,4.5,5.8,40,0.00,,,0.00,WUHU216HW,2013-01-11 07:44:00,
2013-01-11 00:45:00,36.9,14.9,29.36,SW,225,4.3,5.8,40,0.00,,,0.00,WUHU216HW,2013-01-11 07:45:00,
2013-01-11 00:47:00,36.7,15.7,29.36,WSW,248,4.5,6.5,42,0.00,,,0.00,WUHU216HW,2013-01-11 07:47:00,
2013-01-11 00:49:00,36.7,16.7,29.36,SSW,203,5.4,6.5,44,0.00,,,0.00,WUHU216HW,2013-01-11 07:49:00,
2013-01-11 00:50:00,36.7,16.7,29.36,SSW,203,3.4,6.5,44,0.00,,,0.00,WUHU216HW,2013-01-11 07:50:00,
2013-01-11 00:52:00,36.9,16.9,29.36,SSW,203,5.6,6.5,44,0.00,,,0.00,WUHU216HW,2013-01-11 07:52:00,
2013-01-11 00:54:00,36.9,17.5,29.36,SSW,203,3.4,6.5,45,0.00,,,0.00,WUHU216HW,2013-01-11 07:54:00,
2013-01-11 00:55:00,36.9,17.5,29.36,SSW,203,2.7,6.5,45,0.00,,,0.00,WUHU216HW,2013-01-11 07:55:00,
2013-01-11 00:57:00,36.9,16.9,29.36,SSE,158,1.6,5.8,44,0.00,,,0.00,WUHU216HW,2013-01-11 07:57:00,
2013-01-11 00:59:00,37.1,17.1,29.36,SSE,158,0.9,5.6,44,0.00,,,0.00,WUHU216HW,2013-01-11 07:59:00,
2013-01-11 01:00:00,37.1,17.1,29.36,SSE,158,0.9,5.6,44,0.00,,,0.00,WUHU216HW,2013-01-11 08:00:00,
2013-01-11 01:02:00,36.9,16.9,29.36,SE,135,0.9,4.7,44,0.00,,,0.00,WUHU216HW,2013-01-11 08:02:00,
2013-01-11 01:04:00,36.9,16.4,29.35,SE,135,0.0,4.7,43,0.00,,,0.00,WUHU216HW,2013-01-11 08:04:00,
2013-01-11 01:05:00,36.7,16.2,29.36,SE,135,0.4,4.7,43,0.00,,,0.00,WUHU216HW,2013-01-11 08:05:00,
2013-01-11 01:06:00,36.7,16.2,29.36,SE,135,0.4,4.7,43,0.00,,,0.00,WUHU216HW,2013-01-11 08:06:00,
2013-01-11 01:08:00,36.7,16.2,29.36,SE,135,0.4,1.6,43,0.00,,,0.00,WUHU216HW,2013-01-11 08:08:00,
2013-01-11 01:09:00,36.5,16.0,29.36,SE,135,0.0,0.9,43,0.00,,,0.00,WUHU216HW,2013-01-11 08:09:00,
2013-01-11 01:10:00,36.5,16.0,29.35,SE,135,0.2,0.9,43,0.00,,,0.00,WUHU216HW,2013-01-11 08:10:00,
2013-01-11 01:11:00,36.4,15.9,29.35,SE,135,0.2,0.9,43,0.00,,,0.00,WUHU216HW,2013-01-11 08:11:00,
2013-01-11 01:13:00,36.4,15.9,29.36,SE,135,0.0,0.7,43,0.00,,,0.00,WUHU216HW,2013-01-11 08:13:00,
2013-01-11 01:14:00,36.4,15.9,29.35,SE,135,0.0,0.7,43,0.00,,,0.00,WUHU216HW,2013-01-11 08:14:00,
2013-01-11 01:15:00,36.4,15.9,29.35,SE,135,0.0,0.7,43,0.00,,,0.00,WUHU216HW,2013-01-11 08:15:00,
2013-01-11 01:16:00,36.2,15.8,29.35,SE,135,0.0,0.7,43,0.00,,,0.00,WUHU216HW,2013-01-11 08:16:00,
2013-01-11 01:18:00,36.2,16.3,29.36,SE,135,0.0,0.7,44,0.00,,,0.00,WUHU216HW,2013-01-11 08:18:00,
2013-01-11 01:19:00,36.2,16.3,29.36,SSE,158,0.4,0.7,44,0.00,,,0.00,WUHU216HW,2013-01-11 08:19:00,
2013-01-11 01:21:00,36.2,16.3,29.35,SSE,158,0.2,0.7,44,0.00,,,0.00,WUHU216HW,2013-01-11 08:21:00,
2013-01-11 01:23:00,36.2,16.3,29.35,SE,135,1.1,1.1,44,0.00,,,0.00,WUHU216HW,2013-01-11 08:23:00,
2013-01-11 01:24:00,36.2,16.3,29.35,SE,135,0.7,1.8,44,0.00,,,0.00,WUHU216HW,2013-01-11 08:24:00,
2013-01-11 01:26:00,36.2,16.3,29.35,SE,135,0.0,1.8,44,0.00,,,0.00,WUHU216HW,2013-01-11 08:26:00,
2013-01-11 01:28:00,36.2,16.3,29.35,SW,225,0.4,1.8,44,0.00,,,0.00,WUHU216HW,2013-01-11 08:28:00,
2013-01-11 01:30:00,36.2,16.3,29.35,SW,225,0.4,1.8,44,0.00,,,0.00,WUHU216HW,2013-01-11 08:30:00,
2013-01-11 01:31:00,36.4,16.4,29.34,SW,225,0.4,1.8,44,0.00,,,0.00,WUHU216HW,2013-01-11 08:31:00,
2013-01-11 01:32:00,36.4,16.4,29.34,SW,225,1.1,1.8,44,0.00,,,0.00,WUHU216HW,2013-01-11 08:32:00,
2013-01-11 01:33:00,36.4,16.9,29.35,SW,225,0.9,1.8,45,0.00,,,0.00,WUHU216HW,2013-01-11 08:33:00,
2013-01-11 01:35:00,36.4,16.9,29.35,SW,225,1.1,1.1,45,0.00,,,0.00,WUHU216HW,2013-01-11 08:35:00,
2013-01-11 01:36:00,36.4,16.9,29.35,WSW,248,2.2,2.5,45,0.00,,,0.00,WUHU216HW,2013-01-11 08:36:00,
2013-01-11 01:37:00,36.4,16.9,29.35,SW,225,4.7,4.7,45,0.00,,,0.00,WUHU216HW,2013-01-11 08:37:00,
2013-01-11 01:39:00,36.5,17.1,29.35,SW,225,2.9,4.7,45,0.00,,,0.00,WUHU216HW,2013-01-11 08:39:00,
2013-01-11 01:40:00,36.5,17.1,29.34,SW,225,3.4,4.7,45,0.00,,,0.00,WUHU216HW,2013-01-11 08:40:00,
2013-01-11 01:41:00,36.5,17.7,29.34,South,180,3.4,4.7,46,0.00,,,0.00,WUHU216HW,2013-01-11 08:41:00,
2013-01-11 01:43:00,36.5,17.7,29.34,South,180,3.8,4.7,46,0.00,,,0.00,WUHU216HW,2013-01-11 08:43:00,
2013-01-11 01:44:00,36.7,18.3,29.34,South,180,3.6,4.7,47,0.00,,,0.00,WUHU216HW,2013-01-11 08:44:00,
2013-01-11 01:45:00,36.7,18.3,29.34,South,180,2.9,4.7,47,0.00,,,0.00,WUHU216HW,2013-01-11 08:45:00,
2013-01-11 01:47:00,36.7,18.3,29.34,SSW,203,3.4,4.7,47,0.00,,,0.00,WUHU216HW,2013-01-11 08:47:00,
2013-01-11 01:48:00,36.9,18.5,29.34,South,180,2.9,4.0,47,0.00,,,0.00,WUHU216HW,2013-01-11 08:48:00,
2013-01-11 01:49:00,36.9,19.0,29.34,SSW,203,4.3,4.3,48,0.00,,,0.00,WUHU216HW,2013-01-11 08:49:00,
2013-01-11 01:50:00,37.1,19.2,29.34,South,180,3.6,4.3,48,0.00,,,0.00,WUHU216HW,2013-01-11 08:50:00,
2013-01-11 01:52:00,37.1,19.7,29.34,South,180,5.4,5.4,49,0.00,,,0.00,WUHU216HW,2013-01-11 08:52:00,
2013-01-11 01:53:00,37.1,19.7,29.34,South,180,3.8,5.4,49,0.00,,,0.00,WUHU216HW,2013-01-11 08:53:00,
2013-01-11 01:54:00,37.3,20.3,29.34,SSW,203,5.4,6.5,50,0.00,,,0.00,WUHU216HW,2013-01-11 08:54:00,
2013-01-11 01:55:00,37.3,19.8,29.34,SSW,203,4.3,6.5,49,0.00,,,0.00,WUHU216HW,2013-01-11 08:55:00,
2013-01-11 01:57:00,37.4,20.0,29.34,South,180,4.3,6.5,49,0.00,,,0.00,WUHU216HW,2013-01-11 08:57:00,
2013-01-11 01:58:00,37.4,20.0,29.34,South,180,6.3,6.5,49,0.00,,,0.00,WUHU216HW,2013-01-11 08:58:00,
2013-01-11 02:00:00,37.4,20.0,29.34,South,180,5.4,6.5,49,0.00,,,0.00,WUHU216HW,2013-01-11 09:00:00,
2013-01-11 02:02:00,37.6,20.2,29.34,SSW,203,4.0,6.5,49,0.00,,,0.00,WUHU216HW,2013-01-11 09:02:00,
2013-01-11 02:03:00,37.6,20.2,29.34,South,180,5.6,6.5,49,0.00,,,0.00,WUHU216HW,2013-01-11 09:03:00,
2013-01-11 02:05:00,37.8,20.9,29.34,South,180,5.1,6.5,50,0.00,,,0.00,WUHU216HW,2013-01-11 09:05:00,
2013-01-11 02:07:00,37.8,20.9,29.34,SW,225,2.9,6.5,50,0.00,,,0.00,WUHU216HW,2013-01-11 09:07:00,
2013-01-11 02:08:00,37.8,21.2,29.34,SW,225,3.1,6.5,51,0.00,,,0.00,WUHU216HW,2013-01-11 09:08:00,
2013-01-11 02:10:00,37.8,21.7,29.34,SSW,203,4.0,6.5,52,0.00,,,0.00,WUHU216HW,2013-01-11 09:10:00,
2013-01-11 02:11:00,37.8,21.7,29.34,SSW,203,3.4,6.5,52,0.00,,,0.00,WUHU216HW,2013-01-11 09:11:00,
2013-01-11 02:12:00,37.8,21.2,29.34,South,180,5.4,6.5,51,0.00,,,0.00,WUHU216HW,2013-01-11 09:12:00,
2013-01-11 02:14:00,37.8,21.2,29.34,SSW,203,3.8,6.5,51,0.00,,,0.00,WUHU216HW,2013-01-11 09:14:00,
2013-01-11 02:15:00,38.0,21.4,29.34,SW,225,4.0,6.3,51,0.00,,,0.00,WUHU216HW,2013-01-11 09:15:00,
2013-01-11 02:16:00,38.0,21.4,29.33,WSW,248,4.7,6.3,51,0.00,,,0.00,WUHU216HW,2013-01-11 09:16:00,
2013-01-11 02:17:00,38.0,21.4,29.34,SSW,203,4.5,6.3,51,0.00,,,0.00,WUHU216HW,2013-01-11 09:17:00,
2013-01-11 02:19:00,38.0,21.9,29.33,SW,225,4.0,6.3,52,0.00,,,0.00,WUHU216HW,2013-01-11 09:19:00,
2013-01-11 02:20:00,38.0,21.9,29.33,SSW,203,3.1,6.3,52,0.00,,,0.00,WUHU216HW,2013-01-11 09:20:00,
2013-01-11 02:21:00,38.0,21.9,29.33,SSW,203,3.4,6.3,52,0.00,,,0.00,WUHU216HW,2013-01-11 09:21:00,
2013-01-11 02:22:00,38.0,21.4,29.33,SSW,203,3.6,5.8,51,0.00,,,0.00,WUHU216HW,2013-01-11 09:22:00,
2013-01-11 02:24:00,38.0,21.4,29.33,SSW,203,4.0,4.7,51,0.00,,,0.00,WUHU216HW,2013-01-11 09:24:00,
2013-01-11 02:25:00,38.0,21.4,29.33,SW,225,3.8,4.7,51,0.00,,,0.00,WUHU216HW,2013-01-11 09:25:00,
2013-01-11 02:26:00,38.0,21.4,29.33,SW,225,3.4,4.7,51,0.00,,,0.00,WUHU216HW,2013-01-11 09:26:00,
2013-01-11 02:28:00,38.2,21.6,29.33,SW,225,3.4,4.7,51,0.00,,,0.00,WUHU216HW,2013-01-11 09:28:00,
2013-01-11 02:30:00,38.2,21.6,29.33,SSW,203,1.8,4.7,51,0.00,,,0.00,WUHU216HW,2013-01-11 09:30:00,
2013-01-11 02:31:00,38.2,21.6,29.33,SW,225,3.4,4.7,51,0.00,,,0.00,WUHU216HW,2013-01-11 09:31:00,
2013-01-11 02:33:00,38.2,22.1,29.33,SW,225,2.0,4.0,52,0.00,,,0.00,WUHU216HW,2013-01-11 09:33:00,
2013-01-11 02:35:00,38.2,22.1,29.33,SW,225,4.0,4.0,52,0.00,,,0.00,WUHU216HW,2013-01-11 09:35:00,
2013-01-11 02:37:00,38.0,21.9,29.33,SW,225,2.2,4.0,52,0.00,,,0.00,WUHU216HW,2013-01-11 09:37:00,
2013-01-11 02:38:00,38.0,21.9,29.33,SSW,203,3.6,4.0,52,0.00,,,0.00,WUHU216HW,2013-01-11 09:38:00,
2013-01-11 02:40:00,38.0,21.9,29.33,SW,225,3.4,4.0,52,0.00,,,0.00,WUHU216HW,2013-01-11 09:40:00,
2013-01-11 02:42:00,38.0,21.9,29.33,SSW,203,2.7,4.0,52,0.00,,,0.00,WUHU216HW,2013-01-11 09:42:00,
2013-01-11 02:44:00,38.0,21.4,29.33,SW,225,2.5,4.0,51,0.00,,,0.00,WUHU216HW,2013-01-11 09:44:00,
2013-01-11 02:46:00,38.0,21.4,29.32,SW,225,1.6,4.0,51,0.00,,,0.00,WUHU216HW,2013-01-11 09:46:00,
2013-01-11 02:47:00,38.0,21.4,29.33,SSW,203,2.9,4.0,51,0.00,,,0.00,WUHU216HW,2013-01-11 09:47:00,
2013-01-11 02:49:00,38.0,21.9,29.33,SW,225,2.5,3.8,52,0.00,,,0.00,WUHU216HW,2013-01-11 09:49:00,
2013-01-11 02:51:00,38.2,21.6,29.33,SW,225,3.1,3.4,51,0.00,,,0.00,WUHU216HW,2013-01-11 09:51:00,
2013-01-11 02:52:00,38.0,21.4,29.33,SW,225,3.1,3.4,51,0.00,,,0.00,WUHU216HW,2013-01-11 09:52:00,
2013-01-11 02:54:00,38.0,21.9,29.33,SSW,203,3.4,3.8,52,0.00,,,0.00,WUHU216HW,2013-01-11 09:54:00,
2013-01-11 02:56:00,38.0,21.4,29.33,SSW,203,2.7,3.8,51,0.00,,,0.00,WUHU216HW,2013-01-11 09:56:00,
2013-01-11 02:57:00,38.0,21.9,29.33,South,180,3.4,3.8,52,0.00,,,0.00,WUHU216HW,2013-01-11 09:57:00,
2013-01-11 02:59:00,38.0,21.4,29.33,South,180,2.9,3.8,51,0.00,,,0.00,WUHU216HW,2013-01-11 09:59:00,
2013-01-11 03:01:00,38.2,21.6,29.32,South,180,2.7,3.8,51,0.00,,,0.00,WUHU216HW,2013-01-11 10:01:00,
2013-01-11 03:02:00,38.0,21.4,29.33,SSW,203,1.8,3.8,51,0.00,,,0.00,WUHU216HW,2013-01-11 10:02:00,
2013-01-11 03:04:00,38.0,21.4,29.33,SW,225,2.2,3.4,51,0.00,,,0.00,WUHU216HW,2013-01-11 10:04:00,
2013-01-11 03:06:00,38.0,21.4,29.32,SW,225,2.2,3.4,51,0.00,,,0.00,WUHU216HW,2013-01-11 10:06:00,
2013-01-11 03:07:00,38.0,21.4,29.32,SW,225,2.5,3.4,51,0.00,,,0.00,WUHU216HW,2013-01-11 10:07:00,
2013-01-11 03:09:00,38.0,21.4,29.32,SW,225,1.8,2.9,51,0.00,,,0.00,WUHU216HW,2013-01-11 10:09:00,
2013-01-11 03:11:00,38.0,21.4,29.32,SSW,203,2.5,2.7,51,0.00,,,0.00,WUHU216HW,2013-01-11 10:11:00,
2013-01-11 03:12:00,38.0,21.4,29.32,SSW,203,2.5,2.7,51,0.00,,,0.00,WUHU216HW,2013-01-11 10:12:00,
2013-01-11 03:14:00,38.0,21.4,29.32,SSW,203,2.5,2.7,51,0.00,,,0.00,WUHU216HW,2013-01-11 10:14:00,
2013-01-11 03:16:00,38.0,21.4,29.32,SSW,203,2.0,2.7,51,0.00,,,0.00,WUHU216HW,2013-01-11 10:16:00,
2013-01-11 03:17:00,38.0,21.4,29.31,SSW,203,2.5,2.7,51,0.00,,,0.00,WUHU216HW,2013-01-11 10:17:00,
2013-01-11 03:19:00,38.0,21.4,29.31,SSW,203,2.0,2.7,51,0.00,,,0.00,WUHU216HW,2013-01-11 10:19:00,
2013-01-11 03:21:00,38.0,21.4,29.31,SSW,203,1.8,2.7,51,0.00,,,0.00,WUHU216HW,2013-01-11 10:21:00,
2013-01-11 03:22:00,38.0,21.4,29.31,SSW,203,2.0,2.7,51,0.00,,,0.00,WUHU216HW,2013-01-11 10:22:00,
2013-01-11 03:25:00,37.8,21.2,29.31,SW,225,1.8,2.5,51,0.00,,,0.00,WUHU216HW,2013-01-11 10:25:00,
2013-01-11 03:27:00,37.8,21.7,29.31,SSW,203,2.7,2.7,52,0.00,,,0.00,WUHU216HW,2013-01-11 10:27:00,
2013-01-11 03:28:00,37.8,21.2,29.31,SSW,203,3.4,3.4,51,0.00,,,0.00,WUHU216HW,2013-01-11 10:28:00,
2013-01-11 03:30:00,37.8,21.7,29.31,South,180,2.7,3.4,52,0.00,,,0.00,WUHU216HW,2013-01-11 10:30:00,
2013-01-11 03:32:00,37.8,21.7,29.31,SSW,203,2.7,3.4,52,0.00,,,0.00,WUHU216HW,2013-01-11 10:32:00,
2013-01-11 03:33:00,37.8,21.7,29.31,SSW,203,2.9,3.4,52,0.00,,,0.00,WUHU216HW,2013-01-11 10:33:00,
2013-01-11 03:35:00,37.8,21.7,29.31,SSW,203,2.9,3.4,52,0.00,,,0.00,WUHU216HW,2013-01-11 10:35:00,
2013-01-11 03:37:00,37.8,21.7,29.31,SSW,203,3.6,3.6,52,0.00,,,0.00,WUHU216HW,2013-01-11 10:37:00,
2013-01-11 03:38:00,37.8,21.7,29.31,SSW,203,3.6,3.6,52,0.00,,,0.00,WUHU216HW,2013-01-11 10:38:00,
2013-01-11 03:40:00,37.8,21.7,29.31,SW,225,3.1,3.8,52,0.00,,,0.00,WUHU216HW,2013-01-11 10:40:00,
2013-01-11 03:42:00,37.8,21.7,29.31,SW,225,3.8,3.8,52,0.00,,,0.00,WUHU216HW,2013-01-11 10:42:00,
2013-01-11 03:43:00,37.8,21.7,29.30,SW,225,4.0,4.0,52,0.00,,,0.00,WUHU216HW,2013-01-11 10:43:00,
2013-01-11 03:45:00,37.8,21.7,29.30,SW,225,4.5,4.5,52,0.00,,,0.00,WUHU216HW,2013-01-11 10:45:00,
2013-01-11 03:47:00,37.6,22.0,29.30,WSW,248,4.0,4.5,53,0.00,,,0.00,WUHU216HW,2013-01-11 10:47:00,
2013-01-11 03:48:00,37.6,22.0,29.30,SW,225,2.9,4.5,53,0.00,,,0.00,WUHU216HW,2013-01-11 10:48:00,
2013-01-11 03:51:00,37.4,21.8,29.30,SW,225,3.4,4.5,53,0.00,,,0.00,WUHU216HW,2013-01-11 10:51:00,
2013-01-11 03:52:00,37.4,21.8,29.30,SW,225,3.8,4.5,53,0.00,,,0.00,WUHU216HW,2013-01-11 10:52:00,
2013-01-11 03:53:00,37.4,21.8,29.30,WSW,248,4.0,4.5,53,0.00,,,0.00,WUHU216HW,2013-01-11 10:53:00,
2013-01-11 03:56:00,37.3,21.7,29.29,SW,225,3.1,4.5,53,0.00,,,0.00,WUHU216HW,2013-01-11 10:56:00,
2013-01-11 03:57:00,37.3,22.1,29.29,SSW,203,3.8,4.3,54,0.00,,,0.00,WUHU216HW,2013-01-11 10:57:00,
2013-01-11 03:58:00,37.3,22.1,29.29,SW,225,3.4,4.3,54,0.00,,,0.00,WUHU216HW,2013-01-11 10:58:00,
2013-01-11 04:01:00,37.1,22.0,29.29,WSW,248,3.8,4.9,54,0.00,,,0.00,WUHU216HW,2013-01-11 11:01:00,
2013-01-11 04:03:00,37.1,22.0,29.29,SW,225,4.7,5.4,54,0.00,,,0.00,WUHU216HW,2013-01-11 11:03:00,
2013-01-11 04:06:00,37.1,22.3,29.28,SW,225,4.7,5.4,55,0.00,,,0.00,WUHU216HW,2013-01-11 11:06:00,
2013-01-11 04:08:00,37.1,22.0,29.28,SW,225,3.4,5.4,54,0.00,,,0.00,WUHU216HW,2013-01-11 11:08:00,
2013-01-11 04:11:00,37.1,22.3,29.28,SW,225,4.7,5.4,55,0.00,,,0.00,WUHU216HW,2013-01-11 11:11:00,
2013-01-11 04:13:00,36.9,22.2,29.29,SW,225,6.0,6.0,55,0.00,,,0.00,WUHU216HW,2013-01-11 11:13:00,
2013-01-11 04:14:00,36.9,22.2,29.29,WSW,248,3.4,6.0,55,0.00,,,0.00,WUHU216HW,2013-01-11 11:14:00,
2013-01-11 04:16:00,36.9,22.2,29.29,SW,225,5.4,6.0,55,0.00,,,0.00,WUHU216HW,2013-01-11 11:16:00,
2013-01-11 04:18:00,36.9,22.2,29.29,WSW,248,4.5,6.9,55,0.00,,,0.00,WUHU216HW,2013-01-11 11:18:00,
2013-01-11 04:19:00,36.9,22.2,29.29,SW,225,5.8,6.9,55,0.00,,,0.00,WUHU216HW,2013-01-11 11:19:00,
2013-01-11 04:22:00,36.7,21.6,29.29,SW,225,3.8,6.9,54,0.00,,,0.00,WUHU216HW,2013-01-11 11:22:00,
2013-01-11 04:23:00,36.7,21.6,29.29,SW,225,5.4,6.9,54,0.00,,,0.00,WUHU216HW,2013-01-11 11:23:00,
2013-01-11 04:24:00,36.7,21.6,29.29,WSW,248,4.5,6.9,54,0.00,,,0.00,WUHU216HW,2013-01-11 11:24:00,
2013-01-11 04:27:00,36.7,21.6,29.30,WSW,248,5.1,6.9,54,0.00,,,0.00,WUHU216HW,2013-01-11 11:27:00,
2013-01-11 04:28:00,36.7,21.6,29.29,SW,225,5.4,6.3,54,0.00,,,0.00,WUHU216HW,2013-01-11 11:28:00,
2013-01-11 04:29:00,36.7,21.6,29.30,SW,225,6.9,6.9,54,0.00,,,0.00,WUHU216HW,2013-01-11 11:29:00,
2013-01-11 04:32:00,36.7,21.6,29.29,WSW,248,4.7,6.9,54,0.00,,,0.00,WUHU216HW,2013-01-11 11:32:00,
2013-01-11 04:33:00,36.7,21.6,29.29,WSW,248,6.0,6.9,54,0.00,,,0.00,WUHU216HW,2013-01-11 11:33:00,
2013-01-11 04:34:00,36.7,21.6,29.29,SW,225,4.7,6.9,54,0.00,,,0.00,WUHU216HW,2013-01-11 11:34:00,
2013-01-11 04:35:00,36.7,21.6,29.29,SW,225,4.7,6.9,54,0.00,,,0.00,WUHU216HW,2013-01-11 11:35:00,
2013-01-11 04:37:00,36.7,21.6,29.29,SSW,203,5.4,6.9,54,0.00,,,0.00,WUHU216HW,2013-01-11 11:37:00,
2013-01-11 04:38:00,36.7,21.6,29.29,SSW,203,4.7,6.9,54,0.00,,,0.00,WUHU216HW,2013-01-11 11:38:00,
2013-01-11 04:39:00,36.7,21.6,29.29,SW,225,4.7,6.9,54,0.00,,,0.00,WUHU216HW,2013-01-11 11:39:00,
2013-01-11 04:40:00,36.7,21.6,29.29,SW,225,5.4,6.9,54,0.00,,,0.00,WUHU216HW,2013-01-11 11:40:00,
2013-01-11 04:42:00,36.7,21.6,29.30,SSW,203,4.3,6.9,54,0.00,,,0.00,WUHU216HW,2013-01-11 11:42:00,
2013-01-11 04:43:00,36.7,21.6,29.29,SW,225,4.9,6.9,54,0.00,,,0.00,WUHU216HW,2013-01-11 11:43:00,
2013-01-11 04:44:00,36.9,21.8,29.29,SW,225,6.3,6.9,54,0.00,,,0.00,WUHU216HW,2013-01-11 11:44:00,
2013-01-11 04:45:00,36.9,21.8,29.30,SW,225,6.3,6.9,54,0.00,,,0.00,WUHU216HW,2013-01-11 11:45:00,
2013-01-11 04:47:00,36.9,21.8,29.29,SW,225,5.6,6.9,54,0.00,,,0.00,WUHU216HW,2013-01-11 11:47:00,
2013-01-11 04:48:00,36.9,21.8,29.29,SW,225,6.9,8.1,54,0.00,,,0.00,WUHU216HW,2013-01-11 11:48:00,
2013-01-11 04:49:00,37.1,22.0,29.30,SSW,203,6.9,8.1,54,0.00,,,0.00,WUHU216HW,2013-01-11 11:49:00,
2013-01-11 04:50:00,36.9,21.8,29.30,SW,225,7.2,8.1,54,0.00,,,0.00,WUHU216HW,2013-01-11 11:50:00,
2013-01-11 04:52:00,37.1,22.0,29.30,SW,225,4.3,8.1,54,0.00,,,0.00,WUHU216HW,2013-01-11 11:52:00,
2013-01-11 04:54:00,37.1,21.5,29.30,SSW,203,5.4,8.1,53,0.00,,,0.00,WUHU216HW,2013-01-11 11:54:00,
2013-01-11 04:55:00,37.1,21.5,29.30,SSW,203,3.8,8.1,53,0.00,,,0.00,WUHU216HW,2013-01-11 11:55:00,
2013-01-11 04:57:00,37.1,21.5,29.30,SSW,203,3.6,8.1,53,0.00,,,0.00,WUHU216HW,2013-01-11 11:57:00,
2013-01-11 04:59:00,37.1,21.5,29.30,South,180,6.3,7.6,53,0.00,,,0.00,WUHU216HW,2013-01-11 11:59:00,
2013-01-11 05:01:00,37.1,21.1,29.29,SSW,203,5.4,7.6,52,0.00,,,0.00,WUHU216HW,2013-01-11 12:01:00,
2013-01-11 05:02:00,37.1,21.1,29.30,South,180,5.1,7.6,52,0.00,,,0.00,WUHU216HW,2013-01-11 12:02:00,
2013-01-11 05:04:00,37.3,21.3,29.30,South,180,6.5,7.6,52,0.00,,,0.00,WUHU216HW,2013-01-11 12:04:00,
2013-01-11 05:06:00,37.3,21.3,29.30,South,180,5.4,7.6,52,0.00,,,0.00,WUHU216HW,2013-01-11 12:06:00,
2013-01-11 05:07:00,37.4,21.4,29.30,South,180,5.1,7.6,52,0.00,,,0.00,WUHU216HW,2013-01-11 12:07:00,
2013-01-11 05:09:00,37.4,21.4,29.30,South,180,4.7,7.6,52,0.00,,,0.00,WUHU216HW,2013-01-11 12:09:00,
2013-01-11 05:11:00,37.4,21.0,29.30,SSW,203,5.1,7.6,51,0.00,,,0.00,WUHU216HW,2013-01-11 12:11:00,
2013-01-11 05:12:00,37.4,21.4,29.30,SW,225,3.4,6.9,52,0.00,,,0.00,WUHU216HW,2013-01-11 12:12:00,
2013-01-11 05:14:00,37.4,21.0,29.31,SSW,203,6.5,6.9,51,0.00,,,0.00,WUHU216HW,2013-01-11 12:14:00,
2013-01-11 05:15:00,37.3,20.8,29.31,SW,225,4.0,6.9,51,0.00,,,0.00,WUHU216HW,2013-01-11 12:15:00,
2013-01-11 05:16:00,37.3,20.8,29.31,SW,225,6.9,6.9,51,0.00,,,0.00,WUHU216HW,2013-01-11 12:16:00,
2013-01-11 05:18:00,37.3,21.3,29.31,SW,225,5.4,6.9,52,0.00,,,0.00,WUHU216HW,2013-01-11 12:18:00,
2013-01-11 05:20:00,37.3,21.3,29.31,SSW,203,4.9,6.9,52,0.00,,,0.00,WUHU216HW,2013-01-11 12:20:00,
2013-01-11 05:21:00,37.1,21.1,29.31,SW,225,5.4,6.9,52,0.00,,,0.00,WUHU216HW,2013-01-11 12:21:00,
2013-01-11 05:23:00,37.1,21.1,29.30,SW,225,6.0,6.9,52,0.00,,,0.00,WUHU216HW,2013-01-11 12:23:00,
2013-01-11 05:25:00,37.1,21.1,29.30,SSW,203,4.9,6.9,52,0.00,,,0.00,WUHU216HW,2013-01-11 12:25:00,
2013-01-11 05:26:00,37.3,20.8,29.31,WSW,248,6.3,7.6,51,0.00,,,0.00,WUHU216HW,2013-01-11 12:26:00,
2013-01-11 05:28:00,37.3,20.8,29.31,SW,225,6.9,7.6,51,0.00,,,0.00,WUHU216HW,2013-01-11 12:28:00,
2013-01-11 05:30:00,37.3,20.8,29.30,SSE,158,6.9,9.8,51,0.00,,,0.00,WUHU216HW,2013-01-11 12:30:00,
2013-01-11 05:31:00,37.4,20.5,29.30,SSW,203,7.6,9.8,50,0.00,,,0.00,WUHU216HW,2013-01-11 12:31:00,
2013-01-11 05:33:00,37.4,20.5,29.30,SSW,203,5.6,10.5,50,0.00,,,0.00,WUHU216HW,2013-01-11 12:33:00,
2013-01-11 05:35:00,37.6,20.7,29.31,SW,225,6.7,10.5,50,0.00,,,0.00,WUHU216HW,2013-01-11 12:35:00,
2013-01-11 05:36:00,37.8,20.9,29.31,SW,225,8.5,11.4,50,0.00,,,0.00,WUHU216HW,2013-01-11 12:36:00,
2013-01-11 05:38:00,37.8,20.4,29.30,SSW,203,6.9,11.4,49,0.00,,,0.00,WUHU216HW,2013-01-11 12:38:00,
2013-01-11 05:40:00,37.8,19.8,29.31,SSW,203,9.8,13.0,48,0.00,,,0.00,WUHU216HW,2013-01-11 12:40:00,
2013-01-11 05:41:00,38.0,20.0,29.31,SSW,203,8.5,13.0,48,0.00,,,0.00,WUHU216HW,2013-01-11 12:41:00,
2013-01-11 05:43:00,38.3,19.3,29.30,SW,225,10.7,13.0,46,0.00,,,0.00,WUHU216HW,2013-01-11 12:43:00,
2013-01-11 05:45:00,38.5,18.9,29.31,SW,225,9.4,13.0,45,0.00,,,0.00,WUHU216HW,2013-01-11 12:45:00,
2013-01-11 05:46:00,38.5,18.9,29.31,SW,225,6.0,13.0,45,0.00,,,0.00,WUHU216HW,2013-01-11 12:46:00,
2013-01-11 05:49:00,39.1,19.4,29.31,WSW,248,7.6,11.9,45,0.00,,,0.00,WUHU216HW,2013-01-11 12:49:00,
2013-01-11 05:50:00,39.2,19.5,29.31,SSW,203,10.7,11.9,45,0.00,,,0.00,WUHU216HW,2013-01-11 12:50:00,
2013-01-11 05:51:00,39.2,19.5,29.31,SW,225,8.5,11.9,45,0.00,,,0.00,WUHU216HW,2013-01-11 12:51:00,
2013-01-11 05:54:00,39.6,18.8,29.31,SW,225,17.0,21.5,43,0.00,,,0.00,WUHU216HW,2013-01-11 12:54:00,
2013-01-11 05:55:00,40.0,19.2,29.31,SSW,203,19.2,21.5,43,0.00,,,0.00,WUHU216HW,2013-01-11 12:55:00,
2013-01-11 05:56:00,40.1,19.3,29.31,SW,225,13.4,21.5,43,0.00,,,0.00,WUHU216HW,2013-01-11 12:56:00,
2013-01-11 05:59:00,40.7,19.3,29.31,SW,225,20.1,21.5,42,0.00,,,0.00,WUHU216HW,2013-01-11 12:59:00,
2013-01-11 06:01:00,40.9,20.0,29.32,WNW,293,19.0,21.5,43,0.00,,,0.00,WUHU216HW,2013-01-11 13:01:00,
2013-01-11 06:05:00,41.2,21.9,29.33,WSW,248,13.0,21.5,46,0.00,,,0.00,WUHU216HW,2013-01-11 13:05:00,
2013-01-11 06:06:00,41.0,21.7,29.33,WSW,248,11.4,21.5,46,0.00,,,0.00,WUHU216HW,2013-01-11 13:06:00,
2013-01-11 06:10:00,40.7,23.4,29.34,WNW,293,11.2,21.5,50,0.00,,,0.00,WUHU216HW,2013-01-11 13:10:00,
2013-01-11 06:11:00,40.5,23.8,29.34,West,270,13.4,21.5,51,0.00,,,0.00,WUHU216HW,2013-01-11 13:11:00,
2013-01-11 06:15:00,40.0,24.1,29.34,West,270,16.6,19.0,53,0.00,,,0.00,WUHU216HW,2013-01-11 13:15:00,
2013-01-11 06:16:00,40.0,23.7,29.34,WSW,248,11.4,18.6,52,0.00,,,0.00,WUHU216HW,2013-01-11 13:16:00,
2013-01-11 06:20:00,39.6,23.8,29.35,West,270,10.7,21.7,53,0.00,,,0.00,WUHU216HW,2013-01-11 13:20:00,
2013-01-11 06:21:00,39.4,23.6,29.35,West,270,16.1,21.7,53,0.00,,,0.00,WUHU216HW,2013-01-11 13:21:00,
2013-01-11 06:22:00,39.4,23.1,29.35,West,270,14.8,21.7,52,0.00,,,0.00,WUHU216HW,2013-01-11 13:22:00,
2013-01-11 06:25:00,39.2,23.4,29.36,SW,225,15.0,21.7,53,0.00,,,0.00,WUHU216HW,2013-01-11 13:25:00,
2013-01-11 06:26:00,39.2,23.4,29.36,WSW,248,12.1,21.7,53,0.00,,,0.00,WUHU216HW,2013-01-11 13:26:00,
2013-01-11 06:27:00,39.2,23.4,29.36,WSW,248,16.8,21.7,53,0.00,,,0.00,WUHU216HW,2013-01-11 13:27:00,
2013-01-11 06:30:00,39.1,23.3,29.36,West,270,15.7,21.3,53,0.00,,,0.00,WUHU216HW,2013-01-11 13:30:00,
2013-01-11 06:31:00,38.9,23.1,29.36,West,270,15.4,21.3,53,0.00,,,0.00,WUHU216HW,2013-01-11 13:31:00,
2013-01-11 06:32:00,38.9,23.1,29.36,West,270,14.3,21.3,53,0.00,,,0.00,WUHU216HW,2013-01-11 13:32:00,
2013-01-11 06:35:00,38.7,23.0,29.37,NW,315,11.2,21.3,53,0.00,,,0.00,WUHU216HW,2013-01-11 13:35:00,
2013-01-11 06:36:00,38.7,23.0,29.37,West,270,12.3,20.1,53,0.00,,,0.00,WUHU216HW,2013-01-11 13:36:00,
2013-01-11 06:37:00,38.5,22.8,29.37,West,270,9.2,20.1,53,0.00,,,0.00,WUHU216HW,2013-01-11 13:37:00,
2013-01-11 06:41:00,38.5,22.3,29.37,WSW,248,8.3,20.1,52,0.00,,,0.00,WUHU216HW,2013-01-11 13:41:00,
2013-01-11 06:42:00,38.3,21.8,29.37,WSW,248,12.8,20.1,51,0.00,,,0.00,WUHU216HW,2013-01-11 13:42:00,
2013-01-11 06:46:00,38.2,20.6,29.38,WSW,248,14.5,19.5,49,0.00,,,0.00,WUHU216HW,2013-01-11 13:46:00,
2013-01-11 06:47:00,38.0,20.0,29.38,West,270,13.9,19.5,48,0.00,,,0.00,WUHU216HW,2013-01-11 13:47:00,
2013-01-11 06:51:00,37.8,19.3,29.38,SW,225,18.6,21.0,47,0.00,,,0.00,WUHU216HW,2013-01-11 13:51:00,
2013-01-11 06:52:00,37.8,19.3,29.38,WSW,248,18.1,21.0,47,0.00,,,0.00,WUHU216HW,2013-01-11 13:52:00,
2013-01-11 06:53:00,37.8,19.3,29.38,WSW,248,18.1,21.0,47,0.00,,,0.00,WUHU216HW,2013-01-11 13:53:00,
2013-01-11 06:56:00,37.4,19.0,29.38,West,270,14.3,21.0,47,0.00,,,0.00,WUHU216HW,2013-01-11 13:56:00,
2013-01-11 06:57:00,37.4,19.0,29.38,WSW,248,13.6,21.0,47,0.00,,,0.00,WUHU216HW,2013-01-11 13:57:00,
2013-01-11 06:58:00,37.4,19.0,29.38,West,270,14.3,21.0,47,0.00,,,0.00,WUHU216HW,2013-01-11 13:58:00,
2013-01-11 07:01:00,37.1,18.6,29.39,WSW,248,16.3,20.1,47,0.00,,,0.00,WUHU216HW,2013-01-11 14:01:00,
2013-01-11 07:02:00,37.1,18.6,29.38,WSW,248,17.2,20.1,47,0.00,,,0.00,WUHU216HW,2013-01-11 14:02:00,
2013-01-11 07:03:00,37.1,18.6,29.39,WSW,248,13.9,20.1,47,0.00,,,0.00,WUHU216HW,2013-01-11 14:03:00,
2013-01-11 07:06:00,36.9,19.0,29.39,West,270,14.3,20.1,48,0.00,,,0.00,WUHU216HW,2013-01-11 14:06:00,
2013-01-11 07:07:00,37.1,19.2,29.39,West,270,14.3,20.1,48,0.00,,,0.00,WUHU216HW,2013-01-11 14:07:00,
2013-01-11 07:08:00,36.9,19.0,29.39,West,270,13.0,20.1,48,0.00,,,0.00,WUHU216HW,2013-01-11 14:08:00,
2013-01-11 07:12:00,36.7,18.8,29.39,West,270,9.2,17.9,48,0.00,,,0.00,WUHU216HW,2013-01-11 14:12:00,
2013-01-11 07:13:00,36.7,18.8,29.39,West,270,12.1,17.9,48,0.00,,,0.00,WUHU216HW,2013-01-11 14:13:00,
2013-01-11 07:17:00,36.5,18.2,29.39,WSW,248,10.5,19.2,47,0.00,,,0.00,WUHU216HW,2013-01-11 14:17:00,
2013-01-11 07:18:00,36.4,18.0,29.39,WSW,248,11.2,19.2,47,0.00,,,0.00,WUHU216HW,2013-01-11 14:18:00,
2013-01-11 07:19:00,36.4,18.0,29.39,WSW,248,11.2,19.2,47,0.00,,,0.00,WUHU216HW,2013-01-11 14:19:00,
2013-01-11 07:22:00,36.4,17.5,29.40,SW,225,18.8,19.2,46,0.00,,,0.00,WUHU216HW,2013-01-11 14:22:00,
2013-01-11 07:24:00,36.2,17.3,29.40,West,270,11.6,19.2,46,0.00,,,0.00,WUHU216HW,2013-01-11 14:24:00,
2013-01-11 07:27:00,36.2,17.3,29.40,SW,225,10.3,19.0,46,0.00,,,0.00,WUHU216HW,2013-01-11 14:27:00,
2013-01-11 07:29:00,36.0,16.7,29.40,SW,225,14.5,19.0,45,0.00,,,0.00,WUHU216HW,2013-01-11 14:29:00,
2013-01-11 07:32:00,36.0,16.7,29.40,WSW,248,22.1,22.1,45,0.00,,,0.00,WUHU216HW,2013-01-11 14:32:00,
2013-01-11 07:33:00,36.0,16.7,29.40,WSW,248,10.5,22.1,45,0.00,,,0.00,WUHU216HW,2013-01-11 14:33:00,
2013-01-11 07:34:00,35.8,16.5,29.41,WSW,248,15.9,22.1,45,0.00,,,0.00,WUHU216HW,2013-01-11 14:34:00,
2013-01-11 07:37:00,35.8,15.9,29.41,West,270,11.4,22.1,44,0.00,,,0.00,WUHU216HW,2013-01-11 14:37:00,
2013-01-11 07:38:00,35.6,15.8,29.41,West,270,10.5,22.1,44,0.00,,,0.00,WUHU216HW,2013-01-11 14:38:00,
2013-01-11 07:39:00,35.6,15.8,29.41,SW,225,11.0,22.1,44,0.00,,,0.00,WUHU216HW,2013-01-11 14:39:00,
2013-01-11 07:42:00,35.6,15.2,29.42,WSW,248,13.2,19.0,43,0.00,,,0.00,WUHU216HW,2013-01-11 14:42:00,
2013-01-11 07:43:00,35.6,15.2,29.42,WSW,248,13.2,19.0,43,0.00,,,0.00,WUHU216HW,2013-01-11 14:43:00,
2013-01-11 07:44:00,35.6,15.2,29.42,West,270,14.3,19.0,43,0.00,,,0.00,WUHU216HW,2013-01-11 14:44:00,
2013-01-11 07:48:00,35.6,15.2,29.42,WSW,248,17.0,17.0,43,0.00,,,0.00,WUHU216HW,2013-01-11 14:48:00,
2013-01-11 07:49:00,35.5,14.6,29.42,West,270,15.9,18.3,42,0.00,,,0.00,WUHU216HW,2013-01-11 14:49:00,
2013-01-11 07:53:00,35.3,14.4,29.42,West,270,12.5,18.3,42,0.00,,,0.00,WUHU216HW,2013-01-11 14:53:00,
2013-01-11 07:54:00,35.3,13.9,29.42,West,270,19.7,19.7,41,0.00,,,0.00,WUHU216HW,2013-01-11 14:54:00,
2013-01-11 07:55:00,35.3,13.9,29.42,SW,225,14.8,19.7,41,0.00,,,0.00,WUHU216HW,2013-01-11 14:55:00,
2013-01-11 07:58:00,35.1,13.7,29.42,WNW,293,11.4,19.7,41,0.00,,,0.00,WUHU216HW,2013-01-11 14:58:00,
2013-01-11 08:00:00,35.1,14.2,29.42,WNW,293,21.9,22.4,42,0.00,,,0.00,WUHU216HW,2013-01-11 15:00:00,
2013-01-11 08:03:00,34.9,14.0,29.42,West,270,11.4,22.4,42,0.00,,,0.00,WUHU216HW,2013-01-11 15:03:00,
2013-01-11 08:05:00,34.9,14.0,29.43,WSW,248,13.6,22.4,42,0.00,,,0.00,WUHU216HW,2013-01-11 15:05:00,
2013-01-11 08:08:00,34.9,14.0,29.43,SW,225,17.7,22.4,42,0.00,,,0.00,WUHU216HW,2013-01-11 15:08:00,
2013-01-11 08:09:00,34.9,13.6,29.43,WSW,248,9.4,21.9,41,0.00,,,0.00,WUHU216HW,2013-01-11 15:09:00,
2013-01-11 08:10:00,34.9,14.0,29.43,West,270,13.6,19.7,42,0.00,,,0.00,WUHU216HW,2013-01-11 15:10:00,
2013-01-11 08:13:00,34.9,14.0,29.43,NNW,338,11.4,17.9,42,0.00,,,0.00,WUHU216HW,2013-01-11 15:13:00,
2013-01-11 08:14:00,34.9,14.0,29.43,West,270,11.0,17.9,42,0.00,,,0.00,WUHU216HW,2013-01-11 15:14:00,
2013-01-11 08:15:00,34.9,14.0,29.43,West,270,10.3,17.9,42,0.00,,,0.00,WUHU216HW,2013-01-11 15:15:00,
2013-01-11 08:18:00,34.7,13.4,29.44,SW,225,6.3,20.8,41,0.00,,,0.00,WUHU216HW,2013-01-11 15:18:00,
2013-01-11 08:19:00,34.7,13.4,29.44,WSW,248,13.6,20.8,41,0.00,,,0.00,WUHU216HW,2013-01-11 15:19:00,
2013-01-11 08:20:00,34.7,13.4,29.44,SSW,203,12.3,20.8,41,0.00,,,0.00,WUHU216HW,2013-01-11 15:20:00,
2013-01-11 08:23:00,34.7,12.9,29.44,West,270,15.0,20.8,40,0.00,,,0.00,WUHU216HW,2013-01-11 15:23:00,
2013-01-11 08:24:00,34.6,12.7,29.44,NNW,338,12.3,20.8,40,0.00,,,0.00,WUHU216HW,2013-01-11 15:24:00,
2013-01-11 08:25:00,34.6,12.7,29.44,WSW,248,11.4,20.8,40,0.00,,,0.00,WUHU216HW,2013-01-11 15:25:00,
2013-01-11 08:28:00,34.6,12.7,29.44,West,270,14.3,21.5,40,0.00,,,0.00,WUHU216HW,2013-01-11 15:28:00,
2013-01-11 08:29:00,34.6,12.7,29.44,West,270,9.8,21.5,40,0.00,,,0.00,WUHU216HW,2013-01-11 15:29:00,
2013-01-11 08:30:00,34.4,12.5,29.44,NW,315,7.6,21.5,40,0.00,,,0.00,WUHU216HW,2013-01-11 15:30:00,
2013-01-11 08:31:00,34.4,12.5,29.45,WSW,248,4.0,21.5,40,0.00,,,0.00,WUHU216HW,2013-01-11 15:31:00,
2013-01-11 08:34:00,34.4,13.1,29.45,West,270,10.7,21.5,41,0.00,,,0.00,WUHU216HW,2013-01-11 15:34:00,
2013-01-11 08:35:00,34.2,12.4,29.45,WSW,248,16.6,21.5,40,0.00,,,0.00,WUHU216HW,2013-01-11 15:35:00,
2013-01-11 08:36:00,34.2,12.9,29.45,West,270,14.5,21.5,41,0.00,,,0.00,WUHU216HW,2013-01-11 15:36:00,
2013-01-11 08:39:00,34.2,12.9,29.45,WSW,248,13.4,17.0,41,0.00,,,0.00,WUHU216HW,2013-01-11 15:39:00,
2013-01-11 08:40:00,34.2,12.9,29.46,West,270,14.8,19.2,41,0.00,,,0.00,WUHU216HW,2013-01-11 15:40:00,
2013-01-11 08:41:00,34.2,12.9,29.46,WSW,248,16.1,19.2,41,0.00,,,0.00,WUHU216HW,2013-01-11 15:41:00,
2013-01-11 08:44:00,34.0,13.2,29.46,West,270,7.8,19.2,42,0.00,,,0.00,WUHU216HW,2013-01-11 15:44:00,
2013-01-11 08:45:00,34.0,13.2,29.46,WSW,248,6.9,19.2,42,0.00,,,0.00,WUHU216HW,2013-01-11 15:45:00,
2013-01-11 08:46:00,34.0,13.2,29.46,WSW,248,7.6,19.2,42,0.00,,,0.00,WUHU216HW,2013-01-11 15:46:00,
2013-01-11 08:49:00,34.0,13.2,29.46,WSW,248,6.3,19.2,42,0.00,,,0.00,WUHU216HW,2013-01-11 15:49:00,
2013-01-11 08:50:00,34.0,13.2,29.46,West,270,13.2,16.6,42,0.00,,,0.00,WUHU216HW,2013-01-11 15:50:00,
2013-01-11 08:51:00,33.8,13.1,29.46,WSW,248,10.3,16.6,42,0.00,,,0.00,WUHU216HW,2013-01-11 15:51:00,
2013-01-11 08:54:00,33.8,13.1,29.46,WSW,248,6.9,14.8,42,0.00,,,0.00,WUHU216HW,2013-01-11 15:54:00,
2013-01-11 08:55:00,33.8,13.1,29.46,WSW,248,6.9,14.8,42,0.00,,,0.00,WUHU216HW,2013-01-11 15:55:00,
2013-01-11 08:56:00,33.8,12.6,29.46,WSW,248,9.2,14.8,41,0.00,,,0.00,WUHU216HW,2013-01-11 15:56:00,
2013-01-11 08:59:00,33.8,12.6,29.47,WSW,248,10.7,14.8,41,0.00,,,0.00,WUHU216HW,2013-01-11 15:59:00,
2013-01-11 09:00:00,33.8,13.1,29.47,SSW,203,6.7,14.8,42,0.00,,,0.00,WUHU216HW,2013-01-11 16:00:00,
2013-01-11 09:01:00,33.8,12.6,29.47,WSW,248,9.6,14.8,41,0.00,,,0.00,WUHU216HW,2013-01-11 16:01:00,
2013-01-11 09:04:00,33.8,12.6,29.47,SW,225,9.2,11.6,41,0.00,,,0.00,WUHU216HW,2013-01-11 16:04:00,
2013-01-11 09:05:00,33.8,12.6,29.47,SW,225,9.8,11.6,41,0.00,,,0.00,WUHU216HW,2013-01-11 16:05:00,
2013-01-11 09:06:00,33.8,12.6,29.47,WSW,248,12.3,12.3,41,0.00,,,0.00,WUHU216HW,2013-01-11 16:06:00,
2013-01-11 09:09:00,33.8,12.1,29.47,SW,225,8.5,14.3,40,0.00,,,0.00,WUHU216HW,2013-01-11 16:09:00,
2013-01-11 09:10:00,33.8,12.1,29.47,SW,225,8.5,14.3,40,0.00,,,0.00,WUHU216HW,2013-01-11 16:10:00,
2013-01-11 09:11:00,33.8,12.1,29.47,SW,225,6.3,14.3,40,0.00,,,0.00,WUHU216HW,2013-01-11 16:11:00,
2013-01-11 09:12:00,33.8,12.1,29.47,SW,225,6.3,14.3,40,0.00,,,0.00,WUHU216HW,2013-01-11 16:12:00,
2013-01-11 09:14:00,33.8,12.1,29.47,SW,225,7.6,14.3,40,0.00,,,0.00,WUHU216HW,2013-01-11 16:14:00,
2013-01-11 09:15:00,33.8,12.1,29.47,SW,225,7.6,14.3,40,0.00,,,0.00,WUHU216HW,2013-01-11 16:15:00,
2013-01-11 09:16:00,33.8,10.8,29.47,WSW,248,14.3,14.3,38,0.00,,,0.00,WUHU216HW,2013-01-11 16:16:00,
2013-01-11 09:17:00,33.8,10.8,29.47,WSW,248,14.3,14.3,38,0.00,,,0.00,WUHU216HW,2013-01-11 16:17:00,
2013-01-11 09:19:00,33.8,10.2,29.48,SW,225,12.8,15.7,37,0.00,,,0.00,WUHU216HW,2013-01-11 16:19:00,
2013-01-11 09:20:00,33.8,10.2,29.48,SW,225,12.8,15.7,37,0.00,,,0.00,WUHU216HW,2013-01-11 16:20:00,
2013-01-11 09:22:00,34.0,9.7,29.47,SW,225,17.2,17.2,36,0.00,,,0.00,WUHU216HW,2013-01-11 16:22:00,
2013-01-11 09:24:00,34.0,9.1,29.47,West,270,16.3,17.2,35,0.00,,,0.00,WUHU216HW,2013-01-11 16:24:00,
2013-01-11 09:25:00,34.2,9.2,29.47,SW,225,13.4,17.2,35,0.00,,,0.00,WUHU216HW,2013-01-11 16:25:00,
2013-01-11 09:27:00,34.2,9.2,29.48,WSW,248,6.3,17.2,35,0.00,,,0.00,WUHU216HW,2013-01-11 16:27:00,
2013-01-11 09:30:00,34.2,9.2,29.48,WSW,248,9.6,17.2,35,0.00,,,0.00,WUHU216HW,2013-01-11 16:30:00,
2013-01-11 09:32:00,34.2,9.2,29.48,West,270,8.5,16.3,35,0.00,,,0.00,WUHU216HW,2013-01-11 16:32:00,
2013-01-11 09:35:00,34.2,9.2,29.48,West,270,11.4,12.5,35,0.00,,,0.00,WUHU216HW,2013-01-11 16:35:00,
2013-01-11 09:36:00,34.2,9.2,29.48,West,270,11.4,12.5,35,0.00,,,0.00,WUHU216HW,2013-01-11 16:36:00,
2013-01-11 09:37:00,34.4,8.1,29.48,West,270,12.8,12.8,33,0.00,,,0.00,WUHU216HW,2013-01-11 16:37:00,
2013-01-11 09:40:00,34.4,6.2,29.48,WSW,248,13.9,13.9,30,0.00,,,0.00,WUHU216HW,2013-01-11 16:40:00,
2013-01-11 09:41:00,34.4,6.2,29.48,WSW,248,13.9,13.9,30,0.00,,,0.00,WUHU216HW,2013-01-11 16:41:00,
2013-01-11 09:42:00,34.6,6.3,29.48,WSW,248,13.0,13.9,30,0.00,,,0.00,WUHU216HW,2013-01-11 16:42:00,
2013-01-11 09:45:00,34.9,4.9,29.48,WSW,248,5.4,15.7,28,0.00,,,0.00,WUHU216HW,2013-01-11 16:45:00,
2013-01-11 09:46:00,34.9,4.9,29.48,WSW,248,5.4,15.7,28,0.00,,,0.00,WUHU216HW,2013-01-11 16:46:00,
2013-01-11 09:47:00,35.1,5.1,29.48,SW,225,17.2,18.3,28,0.00,,,0.00,WUHU216HW,2013-01-11 16:47:00,
2013-01-11 09:50:00,35.3,5.2,29.48,SSW,203,10.3,18.3,28,0.00,,,0.00,WUHU216HW,2013-01-11 16:50:00,
2013-01-11 09:51:00,35.3,5.2,29.48,West,270,12.1,18.3,28,0.00,,,0.00,WUHU216HW,2013-01-11 16:51:00,
2013-01-11 09:52:00,35.3,5.2,29.48,WSW,248,13.4,18.3,28,0.00,,,0.00,WUHU216HW,2013-01-11 16:52:00,
2013-01-11 09:55:00,35.3,3.4,29.48,WSW,248,12.3,18.3,26,0.00,,,0.00,WUHU216HW,2013-01-11 16:55:00,
2013-01-11 09:56:00,35.3,3.4,29.48,SW,225,9.8,17.2,26,0.00,,,0.00,WUHU216HW,2013-01-11 16:56:00,
2013-01-11 09:57:00,35.5,4.5,29.48,WNW,293,12.5,17.2,27,0.00,,,0.00,WUHU216HW,2013-01-11 16:57:00,
2013-01-11 09:58:00,35.5,4.5,29.48,West,270,11.4,17.2,27,0.00,,,0.00,WUHU216HW,2013-01-11 16:58:00,
2013-01-11 10:01:00,35.6,2.9,29.48,West,270,15.7,19.9,25,0.00,,,0.00,WUHU216HW,2013-01-11 17:01:00,
2013-01-11 10:02:00,35.6,2.0,29.48,West,270,12.3,19.9,24,0.00,,,0.00,WUHU216HW,2013-01-11 17:02:00,
2013-01-11 10:03:00,35.6,2.0,29.48,SW,225,12.8,19.9,24,0.00,,,0.00,WUHU216HW,2013-01-11 17:03:00,
2013-01-11 10:06:00,35.6,2.0,29.49,WSW,248,11.0,19.9,24,0.00,,,0.00,WUHU216HW,2013-01-11 17:06:00,
2013-01-11 10:07:00,35.6,2.9,29.49,WSW,248,8.3,19.9,25,0.00,,,0.00,WUHU216HW,2013-01-11 17:07:00,
2013-01-11 10:08:00,35.6,2.0,29.49,West,270,8.9,19.9,24,0.00,,,0.00,WUHU216HW,2013-01-11 17:08:00,
2013-01-11 10:11:00,36.0,3.2,29.49,West,270,14.1,15.7,25,0.00,,,0.00,WUHU216HW,2013-01-11 17:11:00,
2013-01-11 10:12:00,36.0,2.4,29.49,SSW,203,20.6,20.6,24,0.00,,,0.00,WUHU216HW,2013-01-11 17:12:00,
2013-01-11 10:13:00,36.0,1.4,29.49,West,270,17.9,20.6,23,0.00,,,0.00,WUHU216HW,2013-01-11 17:13:00,
2013-01-11 10:16:00,36.4,1.7,29.49,SW,225,10.3,20.6,23,0.00,,,0.00,WUHU216HW,2013-01-11 17:16:00,
2013-01-11 10:17:00,36.4,0.9,29.49,SW,225,15.2,20.6,22,0.00,,,0.00,WUHU216HW,2013-01-11 17:17:00,
2013-01-11 10:18:00,36.5,0.2,29.49,WSW,248,20.4,20.6,21,0.00,,,0.00,WUHU216HW,2013-01-11 17:18:00,
2013-01-11 10:19:00,36.7,1.2,29.49,WSW,248,16.1,20.6,22,0.00,,,0.00,WUHU216HW,2013-01-11 17:19:00,
2013-01-11 10:21:00,36.9,1.4,29.49,WSW,248,15.0,20.6,22,0.00,,,0.00,WUHU216HW,2013-01-11 17:21:00,
2013-01-11 10:22:00,37.1,1.4,29.49,WSW,248,9.4,20.4,22,0.00,,,0.00,WUHU216HW,2013-01-11 17:22:00,
2013-01-11 10:23:00,37.1,0.6,29.49,WSW,248,21.0,21.0,21,0.00,,,0.00,WUHU216HW,2013-01-11 17:23:00,
2013-01-11 10:24:00,37.3,0.7,29.49,West,270,9.2,21.0,21,0.00,,,0.00,WUHU216HW,2013-01-11 17:24:00,
2013-01-11 10:26:00,37.6,1.9,29.49,West,270,16.3,21.0,22,0.00,,,0.00,WUHU216HW,2013-01-11 17:26:00,
2013-01-11 10:27:00,37.8,0.3,29.49,WSW,248,13.9,21.0,20,0.00,,,0.00,WUHU216HW,2013-01-11 17:27:00,
2013-01-11 10:28:00,37.8,1.2,29.49,WSW,248,13.6,21.0,21,0.00,,,0.00,WUHU216HW,2013-01-11 17:28:00,
2013-01-11 10:29:00,38.0,0.5,29.49,West,270,14.1,21.0,20,0.00,,,0.00,WUHU216HW,2013-01-11 17:29:00,
2013-01-11 10:31:00,38.2,0.5,29.49,WSW,248,15.9,21.0,20,0.00,,,0.00,WUHU216HW,2013-01-11 17:31:00,
2013-01-11 10:32:00,38.2,0.5,29.49,WSW,248,19.5,21.0,20,0.00,,,0.00,WUHU216HW,2013-01-11 17:32:00,
2013-01-11 10:33:00,38.2,1.4,29.49,WNW,293,15.7,21.0,21,0.00,,,0.00,WUHU216HW,2013-01-11 17:33:00,
2013-01-11 10:34:00,38.2,1.4,29.49,WSW,248,18.1,19.5,21,0.00,,,0.00,WUHU216HW,2013-01-11 17:34:00,
2013-01-11 10:36:00,38.3,1.6,29.49,West,270,17.0,19.5,21,0.00,,,0.00,WUHU216HW,2013-01-11 17:36:00,
2013-01-11 10:37:00,38.5,1.8,29.49,WSW,248,18.3,21.9,21,0.00,,,0.00,WUHU216HW,2013-01-11 17:37:00,
2013-01-11 10:38:00,38.5,0.9,29.49,WSW,248,17.0,22.6,20,0.00,,,0.00,WUHU216HW,2013-01-11 17:38:00,
2013-01-11 10:39:00,38.5,1.8,29.49,SW,225,10.7,22.6,21,0.00,,,0.00,WUHU216HW,2013-01-11 17:39:00,
2013-01-11 10:41:00,38.7,1.9,29.49,SW,225,14.3,22.6,21,0.00,,,0.00,WUHU216HW,2013-01-11 17:41:00,
2013-01-11 10:42:00,38.9,2.1,29.49,WNW,293,19.9,22.6,21,0.00,,,0.00,WUHU216HW,2013-01-11 17:42:00,
2013-01-11 10:43:00,38.9,2.1,29.48,SW,225,14.3,22.6,21,0.00,,,0.00,WUHU216HW,2013-01-11 17:43:00,
2013-01-11 10:44:00,38.9,2.1,29.48,WSW,248,19.5,22.6,21,0.00,,,0.00,WUHU216HW,2013-01-11 17:44:00,
2013-01-11 10:46:00,39.1,2.2,29.48,WSW,248,13.6,22.6,21,0.00,,,0.00,WUHU216HW,2013-01-11 17:46:00,
2013-01-11 10:47:00,39.1,2.2,29.48,NW,315,6.9,22.6,21,0.00,,,0.00,WUHU216HW,2013-01-11 17:47:00,
2013-01-11 10:48:00,39.2,3.2,29.48,WSW,248,6.3,19.9,22,0.00,,,0.00,WUHU216HW,2013-01-11 17:48:00,
2013-01-11 10:49:00,39.2,3.2,29.48,SW,225,6.3,19.9,22,0.00,,,0.00,WUHU216HW,2013-01-11 17:49:00,
2013-01-11 10:51:00,39.4,3.4,29.48,WSW,248,15.0,19.9,22,0.00,,,0.00,WUHU216HW,2013-01-11 17:51:00,
2013-01-11 10:52:00,39.6,2.7,29.48,West,270,15.4,20.8,21,0.00,,,0.00,WUHU216HW,2013-01-11 17:52:00,
2013-01-11 10:54:00,39.8,1.9,29.47,SW,225,18.6,20.8,20,0.00,,,0.00,WUHU216HW,2013-01-11 17:54:00,
2013-01-11 10:55:00,39.8,1.9,29.48,WSW,248,16.3,20.8,20,0.00,,,0.00,WUHU216HW,2013-01-11 17:55:00,
2013-01-11 10:56:00,39.6,1.8,29.48,SW,225,14.8,20.8,20,0.00,,,0.00,WUHU216HW,2013-01-11 17:56:00,
2013-01-11 10:57:00,39.6,1.8,29.48,WSW,248,8.9,20.8,20,0.00,,,0.00,WUHU216HW,2013-01-11 17:57:00,
2013-01-11 10:59:00,39.6,1.8,29.48,WSW,248,15.4,20.8,20,0.00,,,0.00,WUHU216HW,2013-01-11 17:59:00,
2013-01-11 11:00:00,39.6,1.8,29.48,WSW,248,15.4,20.8,20,0.00,,,0.00,WUHU216HW,2013-01-11 18:00:00,
2013-01-11 11:01:00,39.6,1.8,29.47,SW,225,11.0,20.8,20,0.00,,,0.00,WUHU216HW,2013-01-11 18:01:00,
2013-01-11 11:02:00,39.8,1.9,29.47,SSW,203,15.0,20.4,20,0.00,,,0.00,WUHU216HW,2013-01-11 18:02:00,
2013-01-11 11:04:00,39.8,1.9,29.47,WSW,248,15.2,20.4,20,0.00,,,0.00,WUHU216HW,2013-01-11 18:04:00,
2013-01-11 11:05:00,39.8,1.9,29.47,WSW,248,18.3,18.3,20,0.00,,,0.00,WUHU216HW,2013-01-11 18:05:00,
2013-01-11 11:06:00,39.8,0.6,29.47,West,270,20.1,20.1,19,0.00,,,0.00,WUHU216HW,2013-01-11 18:06:00,
2013-01-11 11:08:00,39.6,1.8,29.47,West,270,14.3,20.1,20,0.00,,,0.00,WUHU216HW,2013-01-11 18:08:00,
2013-01-11 11:09:00,39.6,1.8,29.47,West,270,8.5,20.1,20,0.00,,,0.00,WUHU216HW,2013-01-11 18:09:00,
2013-01-11 11:10:00,39.8,2.8,29.47,WSW,248,10.1,20.1,21,0.00,,,0.00,WUHU216HW,2013-01-11 18:10:00,
2013-01-11 11:11:00,39.8,2.8,29.47,West,270,14.8,20.1,21,0.00,,,0.00,WUHU216HW,2013-01-11 18:11:00,
2013-01-11 11:13:00,40.0,3.0,29.47,West,270,13.6,20.1,21,0.00,,,0.00,WUHU216HW,2013-01-11 18:13:00,
2013-01-11 11:14:00,40.0,3.0,29.47,West,270,8.5,20.1,21,0.00,,,0.00,WUHU216HW,2013-01-11 18:14:00,
2013-01-11 11:15:00,40.1,3.2,29.47,SSW,203,10.7,14.8,21,0.00,,,0.00,WUHU216HW,2013-01-11 18:15:00,
2013-01-11 11:16:00,40.1,3.2,29.47,WSW,248,13.4,14.8,21,0.00,,,0.00,WUHU216HW,2013-01-11 18:16:00,
2013-01-11 11:18:00,40.5,3.5,29.47,WSW,248,17.0,17.0,21,0.00,,,0.00,WUHU216HW,2013-01-11 18:18:00,
2013-01-11 11:19:00,40.5,3.5,29.47,WSW,248,12.1,17.0,21,0.00,,,0.00,WUHU216HW,2013-01-11 18:19:00,
2013-01-11 11:20:00,40.5,3.5,29.47,West,270,10.7,17.0,21,0.00,,,0.00,WUHU216HW,2013-01-11 18:20:00,
2013-01-11 11:21:00,40.3,3.3,29.47,WSW,248,10.5,17.0,21,0.00,,,0.00,WUHU216HW,2013-01-11 18:21:00,
2013-01-11 11:23:00,40.1,3.2,29.47,SW,225,16.8,17.0,21,0.00,,,0.00,WUHU216HW,2013-01-11 18:23:00,
2013-01-11 11:24:00,40.3,3.3,29.47,SW,225,15.2,17.0,21,0.00,,,0.00,WUHU216HW,2013-01-11 18:24:00,
2013-01-11 11:25:00,40.1,4.1,29.47,WSW,248,16.6,17.0,22,0.00,,,0.00,WUHU216HW,2013-01-11 18:25:00,
2013-01-11 11:26:00,40.1,4.1,29.47,WSW,248,20.1,20.1,22,0.00,,,0.00,WUHU216HW,2013-01-11 18:26:00,
2013-01-11 11:28:00,40.1,4.1,29.47,WSW,248,19.7,20.1,22,0.00,,,0.00,WUHU216HW,2013-01-11 18:28:00,
2013-01-11 11:29:00,40.1,4.1,29.47,SW,225,13.4,20.1,22,0.00,,,0.00,WUHU216HW,2013-01-11 18:29:00,
2013-01-11 11:31:00,40.3,4.2,29.47,WSW,248,8.7,20.1,22,0.00,,,0.00,WUHU216HW,2013-01-11 18:31:00,
2013-01-11 11:32:00,40.3,4.2,29.47,West,270,12.5,20.1,22,0.00,,,0.00,WUHU216HW,2013-01-11 18:32:00,
2013-01-11 11:33:00,40.5,3.5,29.47,West,270,8.1,20.1,21,0.00,,,0.00,WUHU216HW,2013-01-11 18:33:00,
2013-01-11 11:34:00,40.5,4.4,29.47,West,270,11.2,20.1,22,0.00,,,0.00,WUHU216HW,2013-01-11 18:34:00,
2013-01-11 11:36:00,40.7,4.5,29.47,West,270,14.1,19.7,22,0.00,,,0.00,WUHU216HW,2013-01-11 18:36:00,
2013-01-11 11:37:00,40.7,4.5,29.47,NW,315,9.6,19.7,22,0.00,,,0.00,WUHU216HW,2013-01-11 18:37:00,
2013-01-11 11:38:00,40.7,4.5,29.47,WSW,248,6.9,16.3,22,0.00,,,0.00,WUHU216HW,2013-01-11 18:38:00,
2013-01-11 11:39:00,40.9,4.7,29.47,WSW,248,7.6,16.3,22,0.00,,,0.00,WUHU216HW,2013-01-11 18:39:00,
2013-01-11 11:41:00,40.9,4.7,29.46,WSW,248,15.7,16.3,22,0.00,,,0.00,WUHU216HW,2013-01-11 18:41:00,
2013-01-11 11:42:00,41.0,4.9,29.46,West,270,11.4,15.7,22,0.00,,,0.00,WUHU216HW,2013-01-11 18:42:00,
2013-01-11 11:43:00,41.0,4.9,29.47,WSW,248,10.1,15.7,22,0.00,,,0.00,WUHU216HW,2013-01-11 18:43:00,
2013-01-11 11:44:00,41.0,4.0,29.46,WSW,248,21.7,21.7,21,0.00,,,0.00,WUHU216HW,2013-01-11 18:44:00,
2013-01-11 11:46:00,41.0,4.0,29.46,WSW,248,20.6,21.7,21,0.00,,,0.00,WUHU216HW,2013-01-11 18:46:00,
2013-01-11 11:47:00,40.9,3.8,29.47,WSW,248,14.1,21.7,21,0.00,,,0.00,WUHU216HW,2013-01-11 18:47:00,
2013-01-11 11:48:00,40.9,4.7,29.47,West,270,12.1,21.7,22,0.00,,,0.00,WUHU216HW,2013-01-11 18:48:00,
2013-01-11 11:49:00,40.9,4.7,29.46,WNW,293,6.9,21.7,22,0.00,,,0.00,WUHU216HW,2013-01-11 18:49:00,
2013-01-11 11:51:00,40.9,3.8,29.46,West,270,11.2,21.7,21,0.00,,,0.00,WUHU216HW,2013-01-11 18:51:00,
2013-01-11 11:52:00,40.9,3.8,29.47,West,270,5.8,21.7,21,0.00,,,0.00,WUHU216HW,2013-01-11 18:52:00,
2013-01-11 11:53:00,40.9,3.8,29.47,WSW,248,12.8,21.7,21,0.00,,,0.00,WUHU216HW,2013-01-11 18:53:00,
2013-01-11 11:55:00,40.9,3.8,29.46,WSW,248,14.3,20.6,21,0.00,,,0.00,WUHU216HW,2013-01-11 18:55:00,
2013-01-11 11:56:00,41.0,4.0,29.46,SW,225,17.9,17.9,21,0.00,,,0.00,WUHU216HW,2013-01-11 18:56:00,
2013-01-11 11:57:00,41.0,4.0,29.46,SW,225,11.4,17.9,21,0.00,,,0.00,WUHU216HW,2013-01-11 18:57:00,
2013-01-11 11:58:00,41.0,4.0,29.46,WSW,248,13.0,17.9,21,0.00,,,0.00,WUHU216HW,2013-01-11 18:58:00,
2013-01-11 12:00:00,41.0,4.0,29.46,SW,225,12.8,17.9,21,0.00,,,0.00,WUHU216HW,2013-01-11 19:00:00,
2013-01-11 12:01:00,41.0,4.0,29.46,SW,225,4.3,17.9,21,0.00,,,0.00,WUHU216HW,2013-01-11 19:01:00,
2013-01-11 12:02:00,41.2,4.2,29.46,West,270,14.1,17.9,21,0.00,,,0.00,WUHU216HW,2013-01-11 19:02:00,
2013-01-11 12:03:00,41.2,4.2,29.46,West,270,14.1,17.9,21,0.00,,,0.00,WUHU216HW,2013-01-11 19:03:00,
2013-01-11 12:05:00,41.0,4.0,29.46,WNW,293,8.5,14.1,21,0.00,,,0.00,WUHU216HW,2013-01-11 19:05:00,
2013-01-11 12:06:00,41.0,4.0,29.46,West,270,5.1,14.1,21,0.00,,,0.00,WUHU216HW,2013-01-11 19:06:00,
2013-01-11 12:07:00,41.0,4.0,29.46,SSW,203,6.0,14.1,21,0.00,,,0.00,WUHU216HW,2013-01-11 19:07:00,
2013-01-11 12:08:00,41.0,4.0,29.46,SSW,203,6.0,14.1,21,0.00,,,0.00,WUHU216HW,2013-01-11 19:08:00,
2013-01-11 12:10:00,40.9,2.9,29.46,WSW,248,17.2,17.2,20,0.00,,,0.00,WUHU216HW,2013-01-11 19:10:00,
2013-01-11 12:11:00,40.7,2.7,29.46,WSW,248,15.7,17.2,20,0.00,,,0.00,WUHU216HW,2013-01-11 19:11:00,
2013-01-11 12:13:00,40.7,3.6,29.46,WSW,248,9.4,17.2,21,0.00,,,0.00,WUHU216HW,2013-01-11 19:13:00,
2013-01-11 12:15:00,40.5,3.5,29.46,SSW,203,10.3,17.2,21,0.00,,,0.00,WUHU216HW,2013-01-11 19:15:00,
2013-01-11 12:17:00,40.5,4.4,29.46,WSW,248,17.0,17.2,22,0.00,,,0.00,WUHU216HW,2013-01-11 19:17:00,
2013-01-11 12:18:00,40.3,3.3,29.46,WSW,248,10.3,17.2,21,0.00,,,0.00,WUHU216HW,2013-01-11 19:18:00,
2013-01-11 12:19:00,40.5,3.5,29.46,SW,225,6.3,17.2,21,0.00,,,0.00,WUHU216HW,2013-01-11 19:19:00,
2013-01-11 12:20:00,40.3,3.3,29.46,SW,225,15.0,17.0,21,0.00,,,0.00,WUHU216HW,2013-01-11 19:20:00,
2013-01-11 12:22:00,40.5,2.6,29.46,WSW,248,15.0,17.0,20,0.00,,,0.00,WUHU216HW,2013-01-11 19:22:00,
2013-01-11 12:23:00,40.5,2.6,29.46,SW,225,12.5,17.0,20,0.00,,,0.00,WUHU216HW,2013-01-11 19:23:00,
2013-01-11 12:24:00,40.5,2.6,29.46,SW,225,12.5,17.0,20,0.00,,,0.00,WUHU216HW,2013-01-11 19:24:00,
2013-01-11 12:25:00,40.5,2.6,29.46,WSW,248,16.3,17.0,20,0.00,,,0.00,WUHU216HW,2013-01-11 19:25:00,
2013-01-11 12:27:00,40.3,2.4,29.46,WSW,248,20.1,25.7,20,0.00,,,0.00,WUHU216HW,2013-01-11 19:27:00,
2013-01-11 12:28:00,40.5,2.6,29.46,West,270,13.2,25.7,20,0.00,,,0.00,WUHU216HW,2013-01-11 19:28:00,
2013-01-11 12:29:00,40.5,2.6,29.46,West,270,13.2,25.7,20,0.00,,,0.00,WUHU216HW,2013-01-11 19:29:00,
2013-01-11 12:31:00,40.3,3.3,29.46,SW,225,15.2,25.7,21,0.00,,,0.00,WUHU216HW,2013-01-11 19:31:00,
2013-01-11 12:33:00,40.1,3.2,29.46,West,270,15.4,25.7,21,0.00,,,0.00,WUHU216HW,2013-01-11 19:33:00,
2013-01-11 12:34:00,40.3,3.3,29.45,WSW,248,16.6,25.7,21,0.00,,,0.00,WUHU216HW,2013-01-11 19:34:00,
2013-01-11 12:36:00,40.3,4.2,29.45,WSW,248,10.3,25.7,22,0.00,,,0.00,WUHU216HW,2013-01-11 19:36:00,
2013-01-11 12:38:00,40.3,3.3,29.45,WSW,248,10.7,19.2,21,0.00,,,0.00,WUHU216HW,2013-01-11 19:38:00,
2013-01-11 12:39:00,40.3,3.3,29.45,SW,225,17.4,19.2,21,0.00,,,0.00,WUHU216HW,2013-01-11 19:39:00,
2013-01-11 12:41:00,40.3,2.4,29.45,WSW,248,21.3,23.5,20,0.00,,,0.00,WUHU216HW,2013-01-11 19:41:00,
2013-01-11 12:43:00,40.3,2.4,29.45,SW,225,17.4,23.5,20,0.00,,,0.00,WUHU216HW,2013-01-11 19:43:00,
2013-01-11 12:44:00,40.3,2.4,29.45,WSW,248,11.4,23.5,20,0.00,,,0.00,WUHU216HW,2013-01-11 19:44:00,
2013-01-11 12:46:00,40.3,2.4,29.44,SW,225,16.1,23.5,20,0.00,,,0.00,WUHU216HW,2013-01-11 19:46:00,
2013-01-11 12:48:00,40.3,-0.4,29.45,WSW,248,19.2,23.5,18,0.00,,,0.00,WUHU216HW,2013-01-11 19:48:00,
2013-01-11 12:49:00,40.5,1.2,29.45,WSW,248,17.2,23.5,19,0.00,,,0.00,WUHU216HW,2013-01-11 19:49:00,
2013-01-11 12:51:00,40.1,2.3,29.45,SW,225,19.7,24.8,20,0.00,,,0.00,WUHU216HW,2013-01-11 19:51:00,
2013-01-11 12:53:00,40.1,2.3,29.45,WSW,248,15.4,24.8,20,0.00,,,0.00,WUHU216HW,2013-01-11 19:53:00,
2013-01-11 12:54:00,40.1,2.3,29.45,WSW,248,15.7,24.8,20,0.00,,,0.00,WUHU216HW,2013-01-11 19:54:00,
2013-01-11 12:56:00,40.3,2.4,29.45,SW,225,21.3,24.8,20,0.00,,,0.00,WUHU216HW,2013-01-11 19:56:00,
2013-01-11 12:58:00,40.3,2.4,29.45,West,270,13.2,24.8,20,0.00,,,0.00,WUHU216HW,2013-01-11 19:58:00,
2013-01-11 12:59:00,40.3,2.4,29.44,WSW,248,14.1,24.8,20,0.00,,,0.00,WUHU216HW,2013-01-11 19:59:00,
2013-01-11 13:02:00,40.3,3.3,29.44,WSW,248,18.8,21.3,21,0.00,,,0.00,WUHU216HW,2013-01-11 20:02:00,
2013-01-11 13:03:00,40.3,3.3,29.44,WSW,248,12.1,21.3,21,0.00,,,0.00,WUHU216HW,2013-01-11 20:03:00,
2013-01-11 13:04:00,40.1,2.3,29.44,WSW,248,16.3,21.3,20,0.00,,,0.00,WUHU216HW,2013-01-11 20:04:00,
2013-01-11 13:07:00,40.1,2.3,29.44,WSW,248,18.6,20.8,20,0.00,,,0.00,WUHU216HW,2013-01-11 20:07:00,
2013-01-11 13:08:00,40.1,2.3,29.44,SW,225,20.1,20.8,20,0.00,,,0.00,WUHU216HW,2013-01-11 20:08:00,
2013-01-11 13:09:00,40.0,3.0,29.44,SW,225,12.8,20.8,21,0.00,,,0.00,WUHU216HW,2013-01-11 20:09:00,
2013-01-11 13:10:00,40.0,3.0,29.44,SW,225,23.3,23.3,21,0.00,,,0.00,WUHU216HW,2013-01-11 20:10:00,
2013-01-11 13:12:00,40.0,3.0,29.44,SW,225,12.1,23.3,21,0.00,,,0.00,WUHU216HW,2013-01-11 20:12:00,
2013-01-11 13:14:00,40.0,3.0,29.44,SW,225,6.3,23.3,21,0.00,,,0.00,WUHU216HW,2013-01-11 20:14:00,
2013-01-11 13:15:00,40.1,3.2,29.44,SW,225,8.9,23.3,21,0.00,,,0.00,WUHU216HW,2013-01-11 20:15:00,
2013-01-11 13:17:00,40.1,3.2,29.44,WSW,248,12.3,23.3,21,0.00,,,0.00,WUHU216HW,2013-01-11 20:17:00,
2013-01-11 13:19:00,40.3,2.4,29.44,SW,225,10.7,23.3,20,0.00,,,0.00,WUHU216HW,2013-01-11 20:19:00,
2013-01-11 13:20:00,40.3,2.4,29.44,West,270,9.2,17.4,20,0.00,,,0.00,WUHU216HW,2013-01-11 20:20:00,
2013-01-11 13:22:00,40.3,3.3,29.44,SSW,203,14.1,19.5,21,0.00,,,0.00,WUHU216HW,2013-01-11 20:22:00,
2013-01-11 13:24:00,40.3,3.3,29.44,WSW,248,11.4,19.5,21,0.00,,,0.00,WUHU216HW,2013-01-11 20:24:00,
2013-01-11 13:25:00,40.3,3.3,29.44,SSW,203,17.4,19.5,21,0.00,,,0.00,WUHU216HW,2013-01-11 20:25:00,
2013-01-11 13:27:00,40.5,2.6,29.44,West,270,10.5,19.5,20,0.00,,,0.00,WUHU216HW,2013-01-11 20:27:00,
2013-01-11 13:29:00,40.3,2.4,29.44,SW,225,12.1,19.5,20,0.00,,,0.00,WUHU216HW,2013-01-11 20:29:00,
2013-01-11 13:30:00,40.5,2.6,29.44,WSW,248,15.9,19.5,20,0.00,,,0.00,WUHU216HW,2013-01-11 20:30:00,
2013-01-11 13:32:00,40.3,3.3,29.44,SW,225,15.9,20.6,21,0.00,,,0.00,WUHU216HW,2013-01-11 20:32:00,
2013-01-11 13:35:00,40.3,3.3,29.45,WSW,248,12.8,20.6,21,0.00,,,0.00,WUHU216HW,2013-01-11 20:35:00,
2013-01-11 13:37:00,40.3,3.3,29.45,West,270,13.4,20.6,21,0.00,,,0.00,WUHU216HW,2013-01-11 20:37:00,
2013-01-11 13:40:00,40.3,3.3,29.45,SSW,203,10.5,20.6,21,0.00,,,0.00,WUHU216HW,2013-01-11 20:40:00,
2013-01-11 13:43:00,40.3,3.3,29.45,WSW,248,5.1,14.3,21,0.00,,,0.00,WUHU216HW,2013-01-11 20:43:00,
2013-01-11 13:45:00,40.5,3.5,29.45,WSW,248,12.3,13.4,21,0.00,,,0.00,WUHU216HW,2013-01-11 20:45:00,
2013-01-11 13:48:00,40.7,4.5,29.45,West,270,9.4,13.0,22,0.00,,,0.00,WUHU216HW,2013-01-11 20:48:00,
2013-01-11 13:50:00,40.7,3.6,29.45,NW,315,13.4,13.4,21,0.00,,,0.00,WUHU216HW,2013-01-11 20:50:00,
2013-01-11 13:51:00,40.7,3.6,29.45,West,270,15.2,16.8,21,0.00,,,0.00,WUHU216HW,2013-01-11 20:51:00,
2013-01-11 13:53:00,40.7,2.7,29.45,West,270,17.2,17.2,20,0.00,,,0.00,WUHU216HW,2013-01-11 20:53:00,
2013-01-11 13:55:00,40.5,3.5,29.45,West,270,12.8,17.2,21,0.00,,,0.00,WUHU216HW,2013-01-11 20:55:00,
2013-01-11 13:56:00,40.3,3.3,29.45,WSW,248,14.5,17.2,21,0.00,,,0.00,WUHU216HW,2013-01-11 20:56:00,
2013-01-11 13:58:00,40.3,3.3,29.45,WNW,293,7.6,17.2,21,0.00,,,0.00,WUHU216HW,2013-01-11 20:58:00,
2013-01-11 14:01:00,40.3,2.4,29.45,WNW,293,10.7,17.2,20,0.00,,,0.00,WUHU216HW,2013-01-11 21:01:00,
2013-01-11 14:03:00,40.1,2.3,29.45,WSW,248,14.1,15.7,20,0.00,,,0.00,WUHU216HW,2013-01-11 21:03:00,
2013-01-11 14:06:00,40.1,-0.6,29.45,WSW,248,20.1,20.1,18,0.00,,,0.00,WUHU216HW,2013-01-11 21:06:00,
2013-01-11 14:08:00,40.1,0.8,29.45,SSW,203,13.2,20.1,19,0.00,,,0.00,WUHU216HW,2013-01-11 21:08:00,
2013-01-11 14:11:00,40.1,-0.6,29.45,SW,225,13.0,20.1,18,0.00,,,0.00,WUHU216HW,2013-01-11 21:11:00,
2013-01-11 14:13:00,40.1,-0.6,29.45,WSW,248,12.5,20.1,18,0.00,,,0.00,WUHU216HW,2013-01-11 21:13:00,
2013-01-11 14:16:00,40.0,-0.8,29.45,SSW,203,10.1,17.0,18,0.00,,,0.00,WUHU216HW,2013-01-11 21:16:00,
2013-01-11 14:18:00,40.0,-0.8,29.45,SW,225,12.8,18.6,18,0.00,,,0.00,WUHU216HW,2013-01-11 21:18:00,
2013-01-11 14:21:00,40.0,-0.8,29.45,WSW,248,16.3,18.6,18,0.00,,,0.00,WUHU216HW,2013-01-11 21:21:00,
2013-01-11 14:24:00,40.0,0.6,29.45,SW,225,6.9,18.6,19,0.00,,,0.00,WUHU216HW,2013-01-11 21:24:00,
2013-01-11 14:26:00,39.8,1.9,29.45,SW,225,14.5,18.6,20,0.00,,,0.00,WUHU216HW,2013-01-11 21:26:00,
2013-01-11 14:29:00,40.0,-0.8,29.45,WSW,248,17.9,20.8,18,0.00,,,0.00,WUHU216HW,2013-01-11 21:29:00,
2013-01-11 14:31:00,39.8,-0.9,29.45,WSW,248,13.0,20.8,18,0.00,,,0.00,WUHU216HW,2013-01-11 21:31:00,
2013-01-11 14:32:00,39.8,-0.9,29.45,SW,225,7.8,20.8,18,0.00,,,0.00,WUHU216HW,2013-01-11 21:32:00,
2013-01-11 14:34:00,39.8,-0.9,29.45,WNW,293,8.5,20.8,18,0.00,,,0.00,WUHU216HW,2013-01-11 21:34:00,
2013-01-11 14:36:00,39.8,-0.9,29.45,WSW,248,11.9,20.8,18,0.00,,,0.00,WUHU216HW,2013-01-11 21:36:00,
2013-01-11 14:37:00,39.8,-0.9,29.45,WSW,248,7.6,20.8,18,0.00,,,0.00,WUHU216HW,2013-01-11 21:37:00,
2013-01-11 14:39:00,39.8,-0.9,29.45,WSW,248,13.9,15.9,18,0.00,,,0.00,WUHU216HW,2013-01-11 21:39:00,
2013-01-11 14:41:00,39.8,-0.9,29.45,SSW,203,9.8,15.9,18,0.00,,,0.00,WUHU216HW,2013-01-11 21:41:00,
2013-01-11 14:42:00,39.8,-0.9,29.45,WSW,248,8.5,15.9,18,0.00,,,0.00,WUHU216HW,2013-01-11 21:42:00,
2013-01-11 14:44:00,40.0,-0.8,29.45,WSW,248,11.2,17.9,18,0.00,,,0.00,WUHU216HW,2013-01-11 21:44:00,
2013-01-11 14:46:00,39.6,-1.1,29.46,SSW,203,13.2,17.9,18,0.00,,,0.00,WUHU216HW,2013-01-11 21:46:00,
2013-01-11 14:47:00,39.6,-1.1,29.46,WSW,248,10.7,17.9,18,0.00,,,0.00,WUHU216HW,2013-01-11 21:47:00,
2013-01-11 14:49:00,39.6,-1.1,29.46,WSW,248,11.6,17.9,18,0.00,,,0.00,WUHU216HW,2013-01-11 21:49:00,
2013-01-11 14:51:00,39.6,-1.1,29.46,WSW,248,7.6,17.9,18,0.00,,,0.00,WUHU216HW,2013-01-11 21:51:00,
2013-01-11 14:52:00,39.6,-1.1,29.46,West,270,8.7,17.9,18,0.00,,,0.00,WUHU216HW,2013-01-11 21:52:00,
2013-01-11 14:53:00,39.6,0.4,29.46,WSW,248,6.3,17.9,19,0.00,,,0.00,WUHU216HW,2013-01-11 21:53:00,
2013-01-11 14:55:00,39.6,1.8,29.46,West,270,4.7,16.3,20,0.00,,,0.00,WUHU216HW,2013-01-11 21:55:00,
2013-01-11 14:57:00,39.8,1.9,29.46,WSW,248,6.3,16.3,20,0.00,,,0.00,WUHU216HW,2013-01-11 21:57:00,
2013-01-11 14:58:00,39.8,0.6,29.46,West,270,6.9,16.3,19,0.00,,,0.00,WUHU216HW,2013-01-11 21:58:00,
2013-01-11 15:00:00,39.8,0.6,29.46,West,270,15.4,15.4,19,0.00,,,0.00,WUHU216HW,2013-01-11 22:00:00,
2013-01-11 15:02:00,39.8,1.9,29.46,WNW,293,3.8,15.4,20,0.00,,,0.00,WUHU216HW,2013-01-11 22:02:00,
2013-01-11 15:03:00,39.8,1.9,29.46,NNW,338,4.5,15.4,20,0.00,,,0.00,WUHU216HW,2013-01-11 22:03:00,
2013-01-11 15:05:00,39.8,1.9,29.46,NW,315,5.4,15.4,20,0.00,,,0.00,WUHU216HW,2013-01-11 22:05:00,
2013-01-11 15:07:00,39.6,2.7,29.46,NW,315,4.0,15.4,21,0.00,,,0.00,WUHU216HW,2013-01-11 22:07:00,
2013-01-11 15:08:00,39.6,2.7,29.46,WSW,248,9.6,15.4,21,0.00,,,0.00,WUHU216HW,2013-01-11 22:08:00,
2013-01-11 15:10:00,39.2,2.3,29.46,NE,45,8.9,15.2,21,0.00,,,0.00,WUHU216HW,2013-01-11 22:10:00,
2013-01-11 15:12:00,38.9,2.1,29.46,WSW,248,4.0,9.6,21,0.00,,,0.00,WUHU216HW,2013-01-11 22:12:00,
2013-01-11 15:13:00,38.9,3.0,29.46,NW,315,6.5,9.6,22,0.00,,,0.00,WUHU216HW,2013-01-11 22:13:00,
2013-01-11 15:15:00,38.7,2.8,29.46,NNE,23,8.3,10.3,22,0.00,,,0.00,WUHU216HW,2013-01-11 22:15:00,
2013-01-11 15:17:00,38.5,1.8,29.46,NNE,23,3.6,10.3,21,0.00,,,0.00,WUHU216HW,2013-01-11 22:17:00,
2013-01-11 15:18:00,38.5,1.8,29.46,NW,315,8.5,10.3,21,0.00,,,0.00,WUHU216HW,2013-01-11 22:18:00,
2013-01-11 15:20:00,38.3,1.6,29.47,NW,315,2.7,10.3,21,0.00,,,0.00,WUHU216HW,2013-01-11 22:20:00,
2013-01-11 15:22:00,38.3,1.6,29.47,North,0,6.3,10.3,21,0.00,,,0.00,WUHU216HW,2013-01-11 22:22:00,
2013-01-11 15:23:00,38.2,1.4,29.46,WNW,293,10.7,12.8,21,0.00,,,0.00,WUHU216HW,2013-01-11 22:23:00,
2013-01-11 15:25:00,38.0,1.4,29.47,NW,315,4.5,12.8,21,0.00,,,0.00,WUHU216HW,2013-01-11 22:25:00,
2013-01-11 15:27:00,38.0,1.4,29.47,WSW,248,4.7,12.8,21,0.00,,,0.00,WUHU216HW,2013-01-11 22:27:00,
2013-01-11 15:28:00,37.8,1.2,29.47,NNE,23,5.1,12.8,21,0.00,,,0.00,WUHU216HW,2013-01-11 22:28:00,
2013-01-11 15:30:00,37.6,1.0,29.47,WNW,293,4.3,12.8,21,0.00,,,0.00,WUHU216HW,2013-01-11 22:30:00,
2013-01-11 15:32:00,37.4,1.8,29.47,WNW,293,5.1,12.8,22,0.00,,,0.00,WUHU216HW,2013-01-11 22:32:00,
2013-01-11 15:33:00,37.4,1.8,29.47,WSW,248,2.5,8.9,22,0.00,,,0.00,WUHU216HW,2013-01-11 22:33:00,
2013-01-11 15:35:00,37.4,1.8,29.47,West,270,10.5,10.5,22,0.00,,,0.00,WUHU216HW,2013-01-11 22:35:00,
2013-01-11 15:38:00,37.4,1.8,29.47,West,270,6.9,10.5,22,0.00,,,0.00,WUHU216HW,2013-01-11 22:38:00,
2013-01-11 15:39:00,37.3,0.7,29.47,West,270,5.4,10.5,21,0.00,,,0.00,WUHU216HW,2013-01-11 22:39:00,
2013-01-11 15:40:00,37.4,1.8,29.47,North,0,6.3,10.5,22,0.00,,,0.00,WUHU216HW,2013-01-11 22:40:00,
2013-01-11 15:43:00,37.3,0.7,29.47,ESE,113,5.6,10.5,21,0.00,,,0.00,WUHU216HW,2013-01-11 22:43:00,
2013-01-11 15:44:00,37.3,0.7,29.47,North,0,7.4,10.5,21,0.00,,,0.00,WUHU216HW,2013-01-11 22:44:00,
2013-01-11 15:45:00,37.1,0.6,29.47,West,270,3.4,10.5,21,0.00,,,0.00,WUHU216HW,2013-01-11 22:45:00,
2013-01-11 15:48:00,37.1,0.6,29.47,West,270,5.8,10.5,21,0.00,,,0.00,WUHU216HW,2013-01-11 22:48:00,
2013-01-11 15:49:00,37.1,-0.3,29.47,NNW,338,5.4,10.5,20,0.00,,,0.00,WUHU216HW,2013-01-11 22:49:00,
2013-01-11 15:50:00,37.1,-0.3,29.47,NNW,338,8.5,10.5,20,0.00,,,0.00,WUHU216HW,2013-01-11 22:50:00,
2013-01-11 15:53:00,36.7,-0.5,29.47,SSW,203,4.0,11.2,20,0.00,,,0.00,WUHU216HW,2013-01-11 22:53:00,
2013-01-11 15:54:00,36.7,-0.5,29.47,NW,315,7.4,11.2,20,0.00,,,0.00,WUHU216HW,2013-01-11 22:54:00,
2013-01-11 15:55:00,36.7,-0.5,29.47,West,270,2.7,11.2,20,0.00,,,0.00,WUHU216HW,2013-01-11 22:55:00,
2013-01-11 15:58:00,36.7,-0.5,29.47,West,270,2.5,11.2,20,0.00,,,0.00,WUHU216HW,2013-01-11 22:58:00,
2013-01-11 15:59:00,36.7,-0.5,29.47,SW,225,4.3,11.2,20,0.00,,,0.00,WUHU216HW,2013-01-11 22:59:00,
2013-01-11 16:00:00,36.7,-0.5,29.47,SW,225,4.3,11.2,20,0.00,,,0.00,WUHU216HW,2013-01-11 23:00:00,
2013-01-11 16:03:00,36.7,-0.5,29.47,WSW,248,6.5,8.5,20,0.00,,,0.00,WUHU216HW,2013-01-11 23:03:00,
2013-01-11 16:05:00,36.5,-0.7,29.48,NW,315,3.8,8.5,20,0.00,,,0.00,WUHU216HW,2013-01-11 23:05:00,
2013-01-11 16:08:00,36.4,-0.9,29.47,NNW,338,10.1,10.1,20,0.00,,,0.00,WUHU216HW,2013-01-11 23:08:00,
2013-01-11 16:10:00,36.4,-0.9,29.48,North,0,4.0,10.1,20,0.00,,,0.00,WUHU216HW,2013-01-11 23:10:00,
2013-01-11 16:14:00,36.0,-1.2,29.47,NNW,338,2.5,10.1,20,0.00,,,0.00,WUHU216HW,2013-01-11 23:14:00,
2013-01-11 16:15:00,36.0,-1.2,29.48,NW,315,5.4,10.1,20,0.00,,,0.00,WUHU216HW,2013-01-11 23:15:00,
2013-01-11 16:16:00,36.0,-1.2,29.48,SSW,203,9.2,10.1,20,0.00,,,0.00,WUHU216HW,2013-01-11 23:16:00,
2013-01-11 16:19:00,36.0,-1.2,29.48,West,270,7.2,9.2,20,0.00,,,0.00,WUHU216HW,2013-01-11 23:19:00,
2013-01-11 16:20:00,35.8,-1.2,29.48,South,180,5.4,9.2,20,0.00,,,0.00,WUHU216HW,2013-01-11 23:20:00,
2013-01-11 16:21:00,35.8,-1.2,29.48,NW,315,4.0,9.2,20,0.00,,,0.00,WUHU216HW,2013-01-11 23:21:00,
2013-01-11 16:24:00,35.6,-1.4,29.48,WNW,293,6.0,12.5,20,0.00,,,0.00,WUHU216HW,2013-01-11 23:24:00,
2013-01-11 16:25:00,35.5,-1.6,29.48,WNW,293,1.1,12.5,20,0.00,,,0.00,WUHU216HW,2013-01-11 23:25:00,
2013-01-11 16:26:00,35.6,-1.4,29.48,West,270,3.1,12.5,20,0.00,,,0.00,WUHU216HW,2013-01-11 23:26:00,
2013-01-11 16:29:00,35.5,-1.6,29.48,SW,225,4.3,12.5,20,0.00,,,0.00,WUHU216HW,2013-01-11 23:29:00,
2013-01-11 16:30:00,35.3,-1.8,29.48,West,270,5.4,12.5,20,0.00,,,0.00,WUHU216HW,2013-01-11 23:30:00,
2013-01-11 16:31:00,35.3,-1.8,29.48,ESE,113,6.9,12.5,20,0.00,,,0.00,WUHU216HW,2013-01-11 23:31:00,
2013-01-11 16:34:00,35.1,-1.9,29.48,SE,135,2.2,9.2,20,0.00,,,0.00,WUHU216HW,2013-01-11 23:34:00,
2013-01-11 16:35:00,35.1,-1.9,29.48,WNW,293,6.3,9.2,20,0.00,,,0.00,WUHU216HW,2013-01-11 23:35:00,
2013-01-11 16:36:00,34.9,-2.1,29.48,NW,315,6.9,9.2,20,0.00,,,0.00,WUHU216HW,2013-01-11 23:36:00,
2013-01-11 16:39:00,34.9,-2.1,29.48,NW,315,3.4,9.2,20,0.00,,,0.00,WUHU216HW,2013-01-11 23:39:00,
2013-01-11 16:40:00,34.9,-2.1,29.48,NNW,338,4.5,7.2,20,0.00,,,0.00,WUHU216HW,2013-01-11 23:40:00,
2013-01-11 16:41:00,34.9,-2.1,29.48,WNW,293,4.7,7.2,20,0.00,,,0.00,WUHU216HW,2013-01-11 23:41:00,
2013-01-11 16:44:00,34.7,-2.2,29.48,NW,315,2.5,6.9,20,0.00,,,0.00,WUHU216HW,2013-01-11 23:44:00,
2013-01-11 16:45:00,34.7,-2.2,29.49,WSW,248,5.4,6.9,20,0.00,,,0.00,WUHU216HW,2013-01-11 23:45:00,
2013-01-11 16:46:00,34.7,-2.2,29.49,NNW,338,3.1,6.3,20,0.00,,,0.00,WUHU216HW,2013-01-11 23:46:00,
2013-01-11 16:47:00,34.7,-2.2,29.49,NNW,338,3.1,6.3,20,0.00,,,0.00,WUHU216HW,2013-01-11 23:47:00,
2013-01-11 16:49:00,34.7,-2.2,29.49,WSW,248,3.8,6.3,20,0.00,,,0.00,WUHU216HW,2013-01-11 23:49:00,
2013-01-11 16:50:00,34.6,-2.4,29.49,West,270,4.0,6.3,20,0.00,,,0.00,WUHU216HW,2013-01-11 23:50:00,
2013-01-11 16:52:00,34.6,-2.4,29.49,NNW,338,1.8,6.3,20,0.00,,,0.00,WUHU216HW,2013-01-11 23:52:00,
2013-01-11 16:54:00,34.4,-2.6,29.49,NW,315,2.7,6.3,20,0.00,,,0.00,WUHU216HW,2013-01-11 23:54:00,
2013-01-11 16:56:00,34.2,-2.7,29.49,WSW,248,4.0,5.6,20,0.00,,,0.00,WUHU216HW,2013-01-11 23:56:00,
2013-01-11 16:57:00,34.2,-2.7,29.49,North,0,3.6,5.6,20,0.00,,,0.00,WUHU216HW,2013-01-11 23:57:00,
2013-01-11 16:59:00,34.2,-2.7,29.49,NNW,338,4.3,5.6,20,0.00,,,0.00,WUHU216HW,2013-01-11 23:59:00,
2013-01-11 17:01:00,34.0,-2.9,29.49,WNW,293,5.8,6.5,20,0.00,,,0.00,WUHU216HW,2013-01-12 00:01:00,
2013-01-11 17:02:00,34.0,-2.9,29.49,West,270,3.8,6.5,20,0.00,,,0.00,WUHU216HW,2013-01-12 00:02:00,
2013-01-11 17:04:00,34.0,-2.9,29.49,WSW,248,1.1,6.5,20,0.00,,,0.00,WUHU216HW,2013-01-12 00:04:00,
2013-01-11 17:06:00,33.8,-3.1,29.49,West,270,0.9,6.5,20,0.00,,,0.00,WUHU216HW,2013-01-12 00:06:00,
2013-01-11 17:07:00,33.8,-3.1,29.49,NNE,23,2.5,6.5,20,0.00,,,0.00,WUHU216HW,2013-01-12 00:07:00,
2013-01-11 17:09:00,33.8,-3.1,29.50,NW,315,5.4,6.7,20,0.00,,,0.00,WUHU216HW,2013-01-12 00:09:00,
2013-01-11 17:11:00,33.7,-3.2,29.50,WSW,248,3.8,6.7,20,0.00,,,0.00,WUHU216HW,2013-01-12 00:11:00,
2013-01-11 17:12:00,33.7,-3.2,29.50,NW,315,3.1,6.7,20,0.00,,,0.00,WUHU216HW,2013-01-12 00:12:00,
2013-01-11 17:14:00,33.7,-3.2,29.50,NW,315,3.4,6.7,20,0.00,,,0.00,WUHU216HW,2013-01-12 00:14:00,
2013-01-11 17:17:00,33.5,-3.3,29.50,West,270,4.0,6.7,20,0.00,,,0.00,WUHU216HW,2013-01-12 00:17:00,
2013-01-11 17:20:00,33.5,-3.3,29.50,North,0,0.7,5.1,20,0.00,,,0.00,WUHU216HW,2013-01-12 00:20:00,
2013-01-11 17:22:00,33.3,-3.5,29.50,NW,315,1.8,5.1,20,0.00,,,0.00,WUHU216HW,2013-01-12 00:22:00,
2013-01-11 17:23:00,33.3,-3.5,29.50,NW,315,0.4,5.1,20,0.00,,,0.00,WUHU216HW,2013-01-12 00:23:00,
2013-01-11 17:25:00,33.1,-3.6,29.50,WSW,248,0.7,4.7,20,0.00,,,0.00,WUHU216HW,2013-01-12 00:25:00,
2013-01-11 17:27:00,32.9,-3.8,29.50,West,270,2.2,4.7,20,0.00,,,0.00,WUHU216HW,2013-01-12 00:27:00,
2013-01-11 17:28:00,32.9,-3.8,29.50,NW,315,2.7,4.7,20,0.00,,,0.00,WUHU216HW,2013-01-12 00:28:00,
2013-01-11 17:30:00,32.8,-4.0,29.50,North,0,5.8,5.8,20,0.00,,,0.00,WUHU216HW,2013-01-12 00:30:00,
2013-01-11 17:32:00,32.8,-4.0,29.50,NNW,338,0.4,5.8,20,0.00,,,0.00,WUHU216HW,2013-01-12 00:32:00,
2013-01-11 17:33:00,32.6,-4.0,29.51,NNW,338,0.4,5.8,20,0.00,,,0.00,WUHU216HW,2013-01-12 00:33:00,
2013-01-11 17:35:00,32.6,-4.0,29.51,NNW,338,0.0,5.8,20,0.00,,,0.00,WUHU216HW,2013-01-12 00:35:00,
2013-01-11 17:37:00,32.6,-4.0,29.51,North,0,0.9,5.8,20,0.00,,,0.00,WUHU216HW,2013-01-12 00:37:00,
2013-01-11 17:38:00,32.6,-4.0,29.51,West,270,0.0,5.8,20,0.00,,,0.00,WUHU216HW,2013-01-12 00:38:00,
2013-01-11 17:40:00,32.6,-4.0,29.51,West,270,1.3,3.6,20,0.00,,,0.00,WUHU216HW,2013-01-12 00:40:00,
2013-01-11 17:42:00,32.6,-4.0,29.51,West,270,1.1,3.6,20,0.00,,,0.00,WUHU216HW,2013-01-12 00:42:00,
2013-01-11 17:43:00,32.6,-4.0,29.51,South,180,0.4,3.6,20,0.00,,,0.00,WUHU216HW,2013-01-12 00:43:00,
2013-01-11 17:45:00,32.6,-3.2,29.51,West,270,2.2,3.6,21,0.00,,,0.00,WUHU216HW,2013-01-12 00:45:00,
2013-01-11 17:47:00,32.6,-3.2,29.51,North,0,1.3,3.6,21,0.00,,,0.00,WUHU216HW,2013-01-12 00:47:00,
2013-01-11 17:48:00,32.6,-3.2,29.51,NW,315,0.7,3.6,21,0.00,,,0.00,WUHU216HW,2013-01-12 00:48:00,
2013-01-11 17:49:00,32.6,-3.2,29.51,NW,315,1.8,3.6,21,0.00,,,0.00,WUHU216HW,2013-01-12 00:49:00,
2013-01-11 17:50:00,32.6,-3.2,29.51,NNW,338,0.7,3.6,21,0.00,,,0.00,WUHU216HW,2013-01-12 00:50:00,
2013-01-11 17:52:00,32.6,-3.2,29.51,NW,315,1.8,2.7,21,0.00,,,0.00,WUHU216HW,2013-01-12 00:52:00,
2013-01-11 17:53:00,32.6,-3.2,29.51,West,270,1.8,2.7,21,0.00,,,0.00,WUHU216HW,2013-01-12 00:53:00,
2013-01-11 17:54:00,32.6,-3.2,29.51,WNW,293,0.4,2.7,21,0.00,,,0.00,WUHU216HW,2013-01-12 00:54:00,
2013-01-11 17:55:00,32.6,-3.2,29.51,WNW,293,2.5,2.7,21,0.00,,,0.00,WUHU216HW,2013-01-12 00:55:00,
2013-01-11 17:57:00,32.6,-3.2,29.52,NNW,338,0.4,2.7,21,0.00,,,0.00,WUHU216HW,2013-01-12 00:57:00,
2013-01-11 17:58:00,32.4,-3.3,29.52,NNW,338,1.8,2.7,21,0.00,,,0.00,WUHU216HW,2013-01-12 00:58:00,
2013-01-11 17:59:00,32.4,-3.3,29.52,NNW,338,2.2,2.7,21,0.00,,,0.00,WUHU216HW,2013-01-12 00:59:00,
2013-01-11 18:00:00,32.4,-3.3,29.52,North,0,1.8,2.7,21,0.00,,,0.00,WUHU216HW,2013-01-12 01:00:00,
2013-01-11 18:03:00,32.2,-3.5,29.52,NNW,338,1.6,2.7,21,0.00,,,0.00,WUHU216HW,2013-01-12 01:03:00,
2013-01-11 18:04:00,32.2,-3.5,29.52,NNW,338,0.9,2.7,21,0.00,,,0.00,WUHU216HW,2013-01-12 01:04:00,
2013-01-11 18:05:00,32.2,-3.5,29.52,NW,315,1.8,2.2,21,0.00,,,0.00,WUHU216HW,2013-01-12 01:05:00,
2013-01-11 18:08:00,32.0,-3.6,29.52,NNW,338,0.4,2.2,21,0.00,,,0.00,WUHU216HW,2013-01-12 01:08:00,
2013-01-11 18:09:00,32.0,-3.6,29.52,NNW,338,0.0,2.2,21,0.00,,,0.00,WUHU216HW,2013-01-12 01:09:00,
2013-01-11 18:10:00,32.0,-3.6,29.52,NW,315,0.2,2.2,21,0.00,,,0.00,WUHU216HW,2013-01-12 01:10:00,
2013-01-11 18:13:00,32.0,-3.6,29.52,NNW,338,0.4,2.0,21,0.00,,,0.00,WUHU216HW,2013-01-12 01:13:00,
2013-01-11 18:14:00,32.0,-3.6,29.52,NW,315,0.4,1.8,21,0.00,,,0.00,WUHU216HW,2013-01-12 01:14:00,
2013-01-11 18:16:00,32.0,-3.6,29.52,NNW,338,1.1,1.6,21,0.00,,,0.00,WUHU216HW,2013-01-12 01:16:00,
2013-01-11 18:18:00,32.0,-2.8,29.52,NNW,338,2.5,2.9,22,0.00,,,0.00,WUHU216HW,2013-01-12 01:18:00,
2013-01-11 18:19:00,32.0,-2.8,29.52,NNW,338,2.7,2.9,22,0.00,,,0.00,WUHU216HW,2013-01-12 01:19:00,
2013-01-11 18:21:00,32.0,-3.6,29.52,NNW,338,1.1,2.9,21,0.00,,,0.00,WUHU216HW,2013-01-12 01:21:00,
2013-01-11 18:23:00,32.0,-3.6,29.52,NNW,338,1.1,2.9,21,0.00,,,0.00,WUHU216HW,2013-01-12 01:23:00,
2013-01-11 18:24:00,32.0,-3.6,29.52,NNW,338,0.7,2.9,21,0.00,,,0.00,WUHU216HW,2013-01-12 01:24:00,
2013-01-11 18:26:00,31.9,-3.8,29.52,NNW,338,0.4,2.9,21,0.00,,,0.00,WUHU216HW,2013-01-12 01:26:00,
2013-01-11 18:28:00,31.9,-4.7,29.53,North,0,1.8,2.7,20,0.00,,,0.00,WUHU216HW,2013-01-12 01:28:00,
2013-01-11 18:29:00,31.9,-3.8,29.53,NNW,338,1.1,2.7,21,0.00,,,0.00,WUHU216HW,2013-01-12 01:29:00,
2013-01-11 18:31:00,31.7,-4.0,29.53,North,0,0.4,2.5,21,0.00,,,0.00,WUHU216HW,2013-01-12 01:31:00,
2013-01-11 18:33:00,31.7,-4.0,29.53,NNW,338,0.2,2.5,21,0.00,,,0.00,WUHU216HW,2013-01-12 01:33:00,
2013-01-11 18:34:00,31.7,-4.0,29.53,North,0,1.1,2.5,21,0.00,,,0.00,WUHU216HW,2013-01-12 01:34:00,
2013-01-11 18:36:00,31.7,-4.0,29.53,North,0,0.2,2.5,21,0.00,,,0.00,WUHU216HW,2013-01-12 01:36:00,
2013-01-11 18:38:00,31.7,-4.0,29.53,North,0,1.3,2.5,21,0.00,,,0.00,WUHU216HW,2013-01-12 01:38:00,
2013-01-11 18:39:00,31.7,-4.0,29.53,North,0,1.8,2.5,21,0.00,,,0.00,WUHU216HW,2013-01-12 01:39:00,
2013-01-11 18:41:00,31.7,-4.0,29.53,NNW,338,0.4,1.8,21,0.00,,,0.00,WUHU216HW,2013-01-12 01:41:00,
2013-01-11 18:43:00,31.7,-4.0,29.53,NNW,338,1.3,1.8,21,0.00,,,0.00,WUHU216HW,2013-01-12 01:43:00,
2013-01-11 18:44:00,31.7,-4.0,29.53,NNE,23,1.8,1.8,21,0.00,,,0.00,WUHU216HW,2013-01-12 01:44:00,
2013-01-11 18:47:00,31.5,-4.1,29.54,NNW,338,1.8,2.7,21,0.00,,,0.00,WUHU216HW,2013-01-12 01:47:00,
2013-01-11 18:49:00,31.5,-4.1,29.53,NNW,338,2.2,2.9,21,0.00,,,0.00,WUHU216HW,2013-01-12 01:49:00,
2013-01-11 18:52:00,31.3,-4.3,29.53,NNW,338,3.1,3.4,21,0.00,,,0.00,WUHU216HW,2013-01-12 01:52:00,
2013-01-11 18:54:00,31.1,-4.4,29.53,NNW,338,1.6,3.4,21,0.00,,,0.00,WUHU216HW,2013-01-12 01:54:00,
2013-01-11 18:55:00,31.1,-4.4,29.53,North,0,0.7,3.4,21,0.00,,,0.00,WUHU216HW,2013-01-12 01:55:00,
2013-01-11 18:57:00,31.0,-4.6,29.54,North,0,1.1,3.4,21,0.00,,,0.00,WUHU216HW,2013-01-12 01:57:00,
2013-01-11 18:59:00,31.0,-4.6,29.54,NW,315,1.6,3.4,21,0.00,,,0.00,WUHU216HW,2013-01-12 01:59:00,
2013-01-11 19:00:00,31.0,-4.6,29.54,West,270,1.3,3.4,21,0.00,,,0.00,WUHU216HW,2013-01-12 02:00:00,
2013-01-11 19:02:00,30.8,-4.8,29.54,NNW,338,0.4,2.5,21,0.00,,,0.00,WUHU216HW,2013-01-12 02:02:00,
2013-01-11 19:04:00,30.8,-4.8,29.54,North,0,2.5,2.5,21,0.00,,,0.00,WUHU216HW,2013-01-12 02:04:00,
2013-01-11 19:05:00,30.8,-4.8,29.54,NNW,338,1.1,2.5,21,0.00,,,0.00,WUHU216HW,2013-01-12 02:05:00,
2013-01-11 19:07:00,30.8,-4.8,29.54,NNW,338,0.2,2.5,21,0.00,,,0.00,WUHU216HW,2013-01-12 02:07:00,
2013-01-11 19:09:00,30.8,-4.8,29.54,NW,315,0.0,2.5,21,0.00,,,0.00,WUHU216HW,2013-01-12 02:09:00,
2013-01-11 19:10:00,30.6,-4.9,29.53,NNW,338,0.0,2.5,21,0.00,,,0.00,WUHU216HW,2013-01-12 02:10:00,
2013-01-11 19:12:00,30.6,-4.9,29.53,NNW,338,0.2,2.5,21,0.00,,,0.00,WUHU216HW,2013-01-12 02:12:00,
2013-01-11 19:14:00,30.6,-4.9,29.53,West,270,0.9,1.3,21,0.00,,,0.00,WUHU216HW,2013-01-12 02:14:00,
2013-01-11 19:15:00,30.6,-4.0,29.54,NNW,338,0.0,1.1,22,0.00,,,0.00,WUHU216HW,2013-01-12 02:15:00,
2013-01-11 19:17:00,30.6,-4.0,29.54,WSW,248,2.2,2.2,22,0.00,,,0.00,WUHU216HW,2013-01-12 02:17:00,
2013-01-11 19:19:00,30.6,-4.0,29.54,NW,315,0.0,2.2,22,0.00,,,0.00,WUHU216HW,2013-01-12 02:19:00,
2013-01-11 19:20:00,30.4,-4.2,29.54,NNW,338,0.2,2.2,22,0.00,,,0.00,WUHU216HW,2013-01-12 02:20:00,
2013-01-11 19:22:00,30.2,-4.4,29.54,NW,315,0.4,2.2,22,0.00,,,0.00,WUHU216HW,2013-01-12 02:22:00,
2013-01-11 19:24:00,30.2,-4.4,29.54,NNW,338,1.6,2.2,22,0.00,,,0.00,WUHU216HW,2013-01-12 02:24:00,
2013-01-11 19:25:00,30.1,-4.5,29.53,NNW,338,1.1,2.2,22,0.00,,,0.00,WUHU216HW,2013-01-12 02:25:00,
2013-01-11 19:27:00,29.9,-4.7,29.54,NNW,338,0.4,1.8,22,0.00,,,0.00,WUHU216HW,2013-01-12 02:27:00,
2013-01-11 19:29:00,29.7,-4.9,29.54,NW,315,2.5,2.7,22,0.00,,,0.00,WUHU216HW,2013-01-12 02:29:00,
2013-01-11 19:30:00,29.5,-4.9,29.54,NNW,338,0.2,2.7,22,0.00,,,0.00,WUHU216HW,2013-01-12 02:30:00,
2013-01-11 19:32:00,29.3,-5.1,29.54,NNW,338,0.4,2.7,22,0.00,,,0.00,WUHU216HW,2013-01-12 02:32:00,
2013-01-11 19:35:00,29.2,-5.3,29.54,NNW,338,0.0,2.7,22,0.00,,,0.00,WUHU216HW,2013-01-12 02:35:00,
2013-01-11 19:36:00,29.2,-4.4,29.54,NNW,338,0.7,2.7,23,0.00,,,0.00,WUHU216HW,2013-01-12 02:36:00,
2013-01-11 19:37:00,29.2,-4.4,29.53,WNW,293,0.0,2.7,23,0.00,,,0.00,WUHU216HW,2013-01-12 02:37:00,
2013-01-11 19:40:00,29.0,-4.6,29.54,NNW,338,1.8,2.9,23,0.00,,,0.00,WUHU216HW,2013-01-12 02:40:00,
2013-01-11 19:41:00,28.8,-4.7,29.54,WSW,248,1.8,2.9,23,0.00,,,0.00,WUHU216HW,2013-01-12 02:41:00,
2013-01-11 19:42:00,28.8,-4.7,29.54,West,270,2.2,2.9,23,0.00,,,0.00,WUHU216HW,2013-01-12 02:42:00,
2013-01-11 19:45:00,28.4,-5.0,29.54,NNW,338,2.0,2.9,23,0.00,,,0.00,WUHU216HW,2013-01-12 02:45:00,
2013-01-11 19:46:00,28.4,-5.0,29.54,NNW,338,1.6,2.9,23,0.00,,,0.00,WUHU216HW,2013-01-12 02:46:00,
2013-01-11 19:48:00,28.3,-5.1,29.54,WSW,248,1.6,2.9,23,0.00,,,0.00,WUHU216HW,2013-01-12 02:48:00,
2013-01-11 19:50:00,28.1,-5.3,29.54,North,0,0.9,2.7,23,0.00,,,0.00,WUHU216HW,2013-01-12 02:50:00,
2013-01-11 19:51:00,27.9,-5.5,29.54,NNW,338,2.5,2.7,23,0.00,,,0.00,WUHU216HW,2013-01-12 02:51:00,
2013-01-11 19:53:00,27.9,-5.5,29.54,North,0,2.2,2.7,23,0.00,,,0.00,WUHU216HW,2013-01-12 02:53:00,
2013-01-11 19:55:00,27.7,-5.6,29.54,NNW,338,1.1,2.9,23,0.00,,,0.00,WUHU216HW,2013-01-12 02:55:00,
2013-01-11 19:56:00,27.7,-5.6,29.54,NW,315,1.6,2.9,23,0.00,,,0.00,WUHU216HW,2013-01-12 02:56:00,
2013-01-11 19:58:00,27.5,-5.7,29.54,North,0,3.6,3.6,23,0.00,,,0.00,WUHU216HW,2013-01-12 02:58:00,
2013-01-11 20:00:00,27.4,-5.0,29.54,NW,315,2.7,4.7,24,0.00,,,0.00,WUHU216HW,2013-01-12 03:00:00,
2013-01-11 20:01:00,27.4,-5.0,29.54,NW,315,2.7,4.7,24,0.00,,,0.00,WUHU216HW,2013-01-12 03:01:00,
2013-01-11 20:03:00,27.2,-5.2,29.54,North,0,3.4,4.7,24,0.00,,,0.00,WUHU216HW,2013-01-12 03:03:00,
2013-01-11 20:05:00,27.0,-5.4,29.54,North,0,2.0,4.7,24,0.00,,,0.00,WUHU216HW,2013-01-12 03:05:00,
2013-01-11 20:06:00,27.0,-5.4,29.54,NW,315,3.4,4.7,24,0.00,,,0.00,WUHU216HW,2013-01-12 03:06:00,
2013-01-11 20:08:00,27.0,-5.4,29.54,NW,315,3.8,4.7,24,0.00,,,0.00,WUHU216HW,2013-01-12 03:08:00,
2013-01-11 20:10:00,26.8,-5.6,29.54,NW,315,3.4,4.0,24,0.00,,,0.00,WUHU216HW,2013-01-12 03:10:00,
2013-01-11 20:11:00,26.8,-5.6,29.54,North,0,2.7,4.0,24,0.00,,,0.00,WUHU216HW,2013-01-12 03:11:00,
2013-01-11 20:13:00,26.6,-5.7,29.54,North,0,2.0,3.8,24,0.00,,,0.00,WUHU216HW,2013-01-12 03:13:00,
2013-01-11 20:16:00,26.6,-5.7,29.54,North,0,1.1,3.8,24,0.00,,,0.00,WUHU216HW,2013-01-12 03:16:00,
2013-01-11 20:18:00,26.8,-5.6,29.54,NNW,338,0.2,3.8,24,0.00,,,0.00,WUHU216HW,2013-01-12 03:18:00,
2013-01-11 20:21:00,27.0,-5.4,29.54,NNW,338,0.9,3.4,24,0.00,,,0.00,WUHU216HW,2013-01-12 03:21:00,
2013-01-11 20:22:00,27.0,-5.4,29.54,NNW,338,0.9,3.1,24,0.00,,,0.00,WUHU216HW,2013-01-12 03:22:00,
2013-01-11 20:23:00,27.0,-5.4,29.54,NNW,338,2.2,3.4,24,0.00,,,0.00,WUHU216HW,2013-01-12 03:23:00,
2013-01-11 20:26:00,27.0,-5.4,29.54,West,270,0.4,3.4,24,0.00,,,0.00,WUHU216HW,2013-01-12 03:26:00,
2013-01-11 20:27:00,27.0,-5.4,29.54,NW,315,0.2,3.4,24,0.00,,,0.00,WUHU216HW,2013-01-12 03:27:00,
2013-01-11 20:28:00,27.0,-5.4,29.54,NW,315,2.2,3.4,24,0.00,,,0.00,WUHU216HW,2013-01-12 03:28:00,
2013-01-11 20:31:00,27.0,-5.4,29.54,North,0,1.8,3.4,24,0.00,,,0.00,WUHU216HW,2013-01-12 03:31:00,
2013-01-11 20:32:00,27.0,-5.4,29.54,WSW,248,1.1,3.4,24,0.00,,,0.00,WUHU216HW,2013-01-12 03:32:00,
2013-01-11 20:33:00,27.0,-5.4,29.54,North,0,0.2,2.2,24,0.00,,,0.00,WUHU216HW,2013-01-12 03:33:00,
2013-01-11 20:36:00,27.0,-5.4,29.54,NNW,338,0.4,2.5,24,0.00,,,0.00,WUHU216HW,2013-01-12 03:36:00,
2013-01-11 20:37:00,27.0,-5.4,29.54,NNW,338,0.4,2.5,24,0.00,,,0.00,WUHU216HW,2013-01-12 03:37:00,
2013-01-11 20:38:00,27.0,-5.4,29.54,NNW,338,0.0,2.5,24,0.00,,,0.00,WUHU216HW,2013-01-12 03:38:00,
2013-01-11 20:41:00,26.8,-5.6,29.54,North,0,1.3,2.5,24,0.00,,,0.00,WUHU216HW,2013-01-12 03:41:00,
2013-01-11 20:42:00,26.6,-5.7,29.54,North,0,2.5,2.5,24,0.00,,,0.00,WUHU216HW,2013-01-12 03:42:00,
2013-01-11 20:43:00,26.6,-4.9,29.54,NNW,338,2.7,2.9,25,0.00,,,0.00,WUHU216HW,2013-01-12 03:43:00,
2013-01-11 20:46:00,26.6,-4.9,29.54,NNW,338,2.2,2.9,25,0.00,,,0.00,WUHU216HW,2013-01-12 03:46:00,
2013-01-11 20:47:00,26.5,-4.1,29.54,NW,315,1.6,2.9,26,0.00,,,0.00,WUHU216HW,2013-01-12 03:47:00,
2013-01-11 20:48:00,26.5,-4.1,29.53,NW,315,1.1,2.9,26,0.00,,,0.00,WUHU216HW,2013-01-12 03:48:00,
2013-01-11 20:51:00,26.5,-4.1,29.54,NNW,338,1.3,2.9,26,0.00,,,0.00,WUHU216HW,2013-01-12 03:51:00,
2013-01-11 20:52:00,26.6,-4.0,29.54,NW,315,0.7,2.9,26,0.00,,,0.00,WUHU216HW,2013-01-12 03:52:00,
2013-01-11 20:53:00,26.6,-4.0,29.54,NNW,338,2.0,2.7,26,0.00,,,0.00,WUHU216HW,2013-01-12 03:53:00,
2013-01-11 20:56:00,26.6,-4.0,29.54,NW,315,0.4,2.7,26,0.00,,,0.00,WUHU216HW,2013-01-12 03:56:00,
2013-01-11 20:57:00,26.6,-4.0,29.54,NW,315,0.2,2.7,26,0.00,,,0.00,WUHU216HW,2013-01-12 03:57:00,
2013-01-11 20:58:00,26.6,-4.0,29.54,NNW,338,0.0,2.7,26,0.00,,,0.00,WUHU216HW,2013-01-12 03:58:00,
2013-01-11 21:02:00,26.8,-3.9,29.53,NW,315,0.4,2.7,26,0.00,,,0.00,WUHU216HW,2013-01-12 04:02:00,
2013-01-11 21:03:00,26.8,-3.9,29.53,WNW,293,0.2,2.7,26,0.00,,,0.00,WUHU216HW,2013-01-12 04:03:00,
2013-01-11 21:04:00,26.8,-3.9,29.53,West,270,0.7,2.7,26,0.00,,,0.00,WUHU216HW,2013-01-12 04:04:00,
2013-01-11 21:07:00,26.8,-3.9,29.54,NW,315,0.0,1.1,26,0.00,,,0.00,WUHU216HW,2013-01-12 04:07:00,
2013-01-11 21:08:00,26.8,-3.9,29.53,NW,315,0.4,1.1,26,0.00,,,0.00,WUHU216HW,2013-01-12 04:08:00,
2013-01-11 21:09:00,26.8,-3.9,29.54,NW,315,0.0,1.1,26,0.00,,,0.00,WUHU216HW,2013-01-12 04:09:00,
2013-01-11 21:12:00,27.0,-3.7,29.54,WNW,293,0.7,1.1,26,0.00,,,0.00,WUHU216HW,2013-01-12 04:12:00,
2013-01-11 21:13:00,27.0,-3.7,29.54,West,270,1.8,1.8,26,0.00,,,0.00,WUHU216HW,2013-01-12 04:13:00,
2013-01-11 21:14:00,27.0,-3.7,29.54,WNW,293,1.6,1.8,26,0.00,,,0.00,WUHU216HW,2013-01-12 04:14:00,
2013-01-11 21:17:00,27.0,-3.7,29.54,WNW,293,1.1,1.8,26,0.00,,,0.00,WUHU216HW,2013-01-12 04:17:00,
2013-01-11 21:18:00,27.0,-3.7,29.54,WNW,293,0.9,1.8,26,0.00,,,0.00,WUHU216HW,2013-01-12 04:18:00,
2013-01-11 21:19:00,27.0,-3.7,29.54,ESE,113,2.2,2.2,26,0.00,,,0.00,WUHU216HW,2013-01-12 04:19:00,
2013-01-11 21:22:00,26.8,-3.9,29.54,NNW,338,0.0,2.2,26,0.00,,,0.00,WUHU216HW,2013-01-12 04:22:00,
2013-01-11 21:23:00,26.8,-3.9,29.54,NW,315,0.2,2.2,26,0.00,,,0.00,WUHU216HW,2013-01-12 04:23:00,
2013-01-11 21:25:00,26.8,-3.9,29.54,West,270,1.1,2.2,26,0.00,,,0.00,WUHU216HW,2013-01-12 04:25:00,
2013-01-11 21:27:00,26.8,-3.9,29.54,West,270,0.4,2.2,26,0.00,,,0.00,WUHU216HW,2013-01-12 04:27:00,
2013-01-11 21:28:00,26.8,-3.9,29.54,WNW,293,1.8,2.2,26,0.00,,,0.00,WUHU216HW,2013-01-12 04:28:00,
2013-01-11 21:30:00,26.8,-3.9,29.54,WNW,293,2.2,2.7,26,0.00,,,0.00,WUHU216HW,2013-01-12 04:30:00,
2013-01-11 21:32:00,26.8,-3.9,29.54,NW,315,0.0,2.7,26,0.00,,,0.00,WUHU216HW,2013-01-12 04:32:00,
2013-01-11 21:33:00,26.8,-3.9,29.53,NW,315,0.7,2.7,26,0.00,,,0.00,WUHU216HW,2013-01-12 04:33:00,
2013-01-11 21:35:00,26.6,-4.0,29.54,WNW,293,2.2,2.7,26,0.00,,,0.00,WUHU216HW,2013-01-12 04:35:00,
2013-01-11 21:37:00,26.6,-4.0,29.53,WNW,293,1.8,2.7,26,0.00,,,0.00,WUHU216HW,2013-01-12 04:37:00,
2013-01-11 21:38:00,26.6,-4.0,29.53,West,270,1.3,2.7,26,0.00,,,0.00,WUHU216HW,2013-01-12 04:38:00,
2013-01-11 21:40:00,26.6,-4.0,29.53,West,270,0.4,2.5,26,0.00,,,0.00,WUHU216HW,2013-01-12 04:40:00,
2013-01-11 21:42:00,26.5,-4.1,29.53,NW,315,0.2,2.2,26,0.00,,,0.00,WUHU216HW,2013-01-12 04:42:00,
2013-01-11 21:43:00,26.5,-4.1,29.53,NW,315,0.2,2.2,26,0.00,,,0.00,WUHU216HW,2013-01-12 04:43:00,
2013-01-11 21:45:00,26.5,-4.1,29.53,North,0,1.1,2.2,26,0.00,,,0.00,WUHU216HW,2013-01-12 04:45:00,
2013-01-11 21:47:00,26.3,-4.3,29.53,North,0,1.8,2.2,26,0.00,,,0.00,WUHU216HW,2013-01-12 04:47:00,
2013-01-11 21:48:00,26.1,-4.5,29.53,NW,315,0.4,2.2,26,0.00,,,0.00,WUHU216HW,2013-01-12 04:48:00,
2013-01-11 21:50:00,26.1,-4.5,29.53,NNW,338,2.0,2.0,26,0.00,,,0.00,WUHU216HW,2013-01-12 04:50:00,
2013-01-11 21:52:00,25.9,-4.7,29.53,NNW,338,2.5,2.5,26,0.00,,,0.00,WUHU216HW,2013-01-12 04:52:00,
2013-01-11 21:53:00,25.9,-4.7,29.53,NNW,338,1.3,2.5,26,0.00,,,0.00,WUHU216HW,2013-01-12 04:53:00,
2013-01-11 21:55:00,25.9,-4.7,29.53,WNW,293,2.0,2.5,26,0.00,,,0.00,WUHU216HW,2013-01-12 04:55:00,
2013-01-11 21:57:00,25.7,-4.8,29.53,NNW,338,2.7,2.7,26,0.00,,,0.00,WUHU216HW,2013-01-12 04:57:00,
2013-01-11 21:58:00,25.7,-4.8,29.53,NNW,338,1.3,2.7,26,0.00,,,0.00,WUHU216HW,2013-01-12 04:58:00,
2013-01-11 21:59:00,25.7,-4.8,29.53,NNW,338,1.6,2.7,26,0.00,,,0.00,WUHU216HW,2013-01-12 04:59:00,
2013-01-11 22:00:00,25.7,-4.8,29.53,North,0,0.4,2.7,26,0.00,,,0.00,WUHU216HW,2013-01-12 05:00:00,
2013-01-11 22:01:00,25.7,-4.8,29.54,NNW,338,1.1,2.7,26,0.00,,,0.00,WUHU216HW,2013-01-12 05:01:00,
2013-01-11 22:03:00,25.7,-4.8,29.53,NNE,23,3.1,4.9,26,0.00,,,0.00,WUHU216HW,2013-01-12 05:03:00,
2013-01-11 22:05:00,25.7,-4.8,29.54,NNE,23,1.8,4.9,26,0.00,,,0.00,WUHU216HW,2013-01-12 05:05:00,
2013-01-11 22:06:00,25.7,-4.8,29.54,NNE,23,2.5,4.9,26,0.00,,,0.00,WUHU216HW,2013-01-12 05:06:00,
2013-01-11 22:07:00,25.7,-4.8,29.54,ENE,68,2.0,4.9,26,0.00,,,0.00,WUHU216HW,2013-01-12 05:07:00,
2013-01-11 22:08:00,25.7,-4.8,29.54,NNE,23,4.0,4.9,26,0.00,,,0.00,WUHU216HW,2013-01-12 05:08:00,
2013-01-11 22:10:00,25.7,-4.8,29.53,North,0,2.0,4.9,26,0.00,,,0.00,WUHU216HW,2013-01-12 05:10:00,
2013-01-11 22:11:00,25.7,-4.8,29.54,North,0,2.0,4.9,26,0.00,,,0.00,WUHU216HW,2013-01-12 05:11:00,
2013-01-11 22:12:00,25.7,-4.8,29.54,North,0,2.7,4.9,26,0.00,,,0.00,WUHU216HW,2013-01-12 05:12:00,
2013-01-11 22:14:00,25.7,-4.8,29.54,North,0,2.2,4.9,26,0.00,,,0.00,WUHU216HW,2013-01-12 05:14:00,
2013-01-11 22:16:00,25.7,-4.8,29.54,NNW,338,0.2,4.9,26,0.00,,,0.00,WUHU216HW,2013-01-12 05:16:00,
2013-01-11 22:17:00,25.7,-4.8,29.54,NNW,338,0.0,4.9,26,0.00,,,0.00,WUHU216HW,2013-01-12 05:17:00,
2013-01-11 22:19:00,25.7,-4.8,29.54,NNW,338,0.4,3.4,26,0.00,,,0.00,WUHU216HW,2013-01-12 05:19:00,
2013-01-11 22:21:00,25.7,-4.8,29.54,NNW,338,1.3,3.4,26,0.00,,,0.00,WUHU216HW,2013-01-12 05:21:00,
2013-01-11 22:22:00,25.7,-4.8,29.54,West,270,2.0,2.5,26,0.00,,,0.00,WUHU216HW,2013-01-12 05:22:00,
2013-01-11 22:24:00,25.6,-4.9,29.54,WNW,293,1.8,3.4,26,0.00,,,0.00,WUHU216HW,2013-01-12 05:24:00,
2013-01-11 22:26:00,25.7,-4.8,29.54,NW,315,1.3,3.4,26,0.00,,,0.00,WUHU216HW,2013-01-12 05:26:00,
2013-01-11 22:27:00,25.6,-4.9,29.54,NW,315,1.1,3.4,26,0.00,,,0.00,WUHU216HW,2013-01-12 05:27:00,
2013-01-11 22:29:00,25.6,-4.9,29.54,NW,315,1.6,3.4,26,0.00,,,0.00,WUHU216HW,2013-01-12 05:29:00,
2013-01-11 22:31:00,25.6,-4.9,29.54,NNW,338,1.8,3.4,26,0.00,,,0.00,WUHU216HW,2013-01-12 05:31:00,
2013-01-11 22:32:00,25.6,-4.9,29.54,NNW,338,2.2,3.4,26,0.00,,,0.00,WUHU216HW,2013-01-12 05:32:00,
2013-01-11 22:34:00,25.6,-4.9,29.54,NW,315,1.3,2.9,26,0.00,,,0.00,WUHU216HW,2013-01-12 05:34:00,
2013-01-11 22:36:00,25.4,-5.1,29.54,WNW,293,2.2,2.9,26,0.00,,,0.00,WUHU216HW,2013-01-12 05:36:00,
2013-01-11 22:37:00,25.4,-4.2,29.54,NW,315,2.7,2.9,27,0.00,,,0.00,WUHU216HW,2013-01-12 05:37:00,
2013-01-11 22:39:00,25.4,-4.2,29.54,WNW,293,1.3,2.9,27,0.00,,,0.00,WUHU216HW,2013-01-12 05:39:00,
2013-01-11 22:41:00,25.2,-4.4,29.54,WNW,293,0.4,2.9,27,0.00,,,0.00,WUHU216HW,2013-01-12 05:41:00,
2013-01-11 22:43:00,25.2,-4.4,29.54,NNW,338,2.7,2.9,27,0.00,,,0.00,WUHU216HW,2013-01-12 05:43:00,
2013-01-11 22:44:00,25.0,-4.6,29.54,NNW,338,1.8,2.9,27,0.00,,,0.00,WUHU216HW,2013-01-12 05:44:00,
2013-01-11 22:47:00,24.8,-4.7,29.54,NW,315,3.6,3.6,27,0.00,,,0.00,WUHU216HW,2013-01-12 05:47:00,
2013-01-11 22:48:00,24.7,-4.9,29.54,NW,315,2.7,3.6,27,0.00,,,0.00,WUHU216HW,2013-01-12 05:48:00,
2013-01-11 22:50:00,24.5,-5.0,29.54,North,0,1.8,3.6,27,0.00,,,0.00,WUHU216HW,2013-01-12 05:50:00,
2013-01-11 22:51:00,24.1,-5.3,29.54,North,0,2.0,3.6,27,0.00,,,0.00,WUHU216HW,2013-01-12 05:51:00,
2013-01-11 22:52:00,24.1,-5.3,29.54,NNW,338,1.1,3.6,27,0.00,,,0.00,WUHU216HW,2013-01-12 05:52:00,
2013-01-11 22:53:00,24.1,-5.3,29.54,NNW,338,2.5,3.6,27,0.00,,,0.00,WUHU216HW,2013-01-12 05:53:00,
2013-01-11 22:55:00,24.1,-5.3,29.54,NNW,338,3.4,4.0,27,0.00,,,0.00,WUHU216HW,2013-01-12 05:55:00,
2013-01-11 22:57:00,23.9,-5.5,29.53,NNW,338,2.5,4.0,27,0.00,,,0.00,WUHU216HW,2013-01-12 05:57:00,
2013-01-11 22:58:00,23.9,-5.5,29.53,North,0,2.0,4.0,27,0.00,,,0.00,WUHU216HW,2013-01-12 05:58:00,
2013-01-11 23:00:00,23.8,-4.8,29.54,North,0,2.0,4.0,28,0.00,,,0.00,WUHU216HW,2013-01-12 06:00:00,
2013-01-11 23:02:00,23.8,-4.8,29.53,North,0,2.0,4.0,28,0.00,,,0.00,WUHU216HW,2013-01-12 06:02:00,
2013-01-11 23:03:00,23.8,-4.8,29.53,North,0,2.2,4.0,28,0.00,,,0.00,WUHU216HW,2013-01-12 06:03:00,
2013-01-11 23:05:00,23.8,-4.8,29.53,NNE,23,0.2,4.0,28,0.00,,,0.00,WUHU216HW,2013-01-12 06:05:00,
2013-01-11 23:07:00,23.8,-4.8,29.53,North,0,0.2,4.0,28,0.00,,,0.00,WUHU216HW,2013-01-12 06:07:00,
2013-01-11 23:08:00,23.8,-4.8,29.53,North,0,0.0,4.0,28,0.00,,,0.00,WUHU216HW,2013-01-12 06:08:00,
2013-01-11 23:10:00,23.8,-4.8,29.54,North,0,0.0,3.4,28,0.00,,,0.00,WUHU216HW,2013-01-12 06:10:00,
2013-01-11 23:12:00,23.9,-4.7,29.54,SSE,158,0.2,2.5,28,0.00,,,0.00,WUHU216HW,2013-01-12 06:12:00,
2013-01-11 23:13:00,23.9,-4.7,29.54,SSE,158,0.7,2.5,28,0.00,,,0.00,WUHU216HW,2013-01-12 06:13:00,
2013-01-11 23:15:00,23.9,-4.7,29.54,SSW,203,0.0,1.1,28,0.00,,,0.00,WUHU216HW,2013-01-12 06:15:00,
2013-01-11 23:17:00,23.9,-4.7,29.54,SSW,203,0.0,0.7,28,0.00,,,0.00,WUHU216HW,2013-01-12 06:17:00,
2013-01-11 23:18:00,24.1,-4.5,29.54,WNW,293,0.0,0.7,28,0.00,,,0.00,WUHU216HW,2013-01-12 06:18:00,
2013-01-11 23:20:00,24.1,-4.5,29.54,NNE,23,3.1,3.1,28,0.00,,,0.00,WUHU216HW,2013-01-12 06:20:00,
2013-01-11 23:22:00,24.1,-4.5,29.54,North,0,0.2,3.8,28,0.00,,,0.00,WUHU216HW,2013-01-12 06:22:00,
2013-01-11 23:23:00,24.1,-4.5,29.54,NNE,23,1.8,3.8,28,0.00,,,0.00,WUHU216HW,2013-01-12 06:23:00,
2013-01-11 23:25:00,24.1,-4.5,29.54,NNW,338,1.1,4.0,28,0.00,,,0.00,WUHU216HW,2013-01-12 06:25:00,
2013-01-11 23:27:00,24.1,-4.5,29.54,NNW,338,1.8,4.0,28,0.00,,,0.00,WUHU216HW,2013-01-12 06:27:00,
2013-01-11 23:28:00,24.1,-4.5,29.54,NW,315,1.8,4.0,28,0.00,,,0.00,WUHU216HW,2013-01-12 06:28:00,
2013-01-11 23:29:00,24.1,-4.5,29.54,NNW,338,2.2,4.0,28,0.00,,,0.00,WUHU216HW,2013-01-12 06:29:00,
2013-01-11 23:30:00,24.1,-4.5,29.54,NW,315,2.7,4.0,28,0.00,,,0.00,WUHU216HW,2013-01-12 06:30:00,
2013-01-11 23:32:00,24.1,-4.5,29.54,NNW,338,1.3,4.0,28,0.00,,,0.00,WUHU216HW,2013-01-12 06:32:00,
2013-01-11 23:34:00,24.1,-4.5,29.54,NW,315,1.1,4.0,28,0.00,,,0.00,WUHU216HW,2013-01-12 06:34:00,
2013-01-11 23:35:00,23.9,-4.7,29.54,NW,315,0.2,3.1,28,0.00,,,0.00,WUHU216HW,2013-01-12 06:35:00,
2013-01-11 23:37:00,23.9,-4.7,29.54,NNW,338,0.2,3.1,28,0.00,,,0.00,WUHU216HW,2013-01-12 06:37:00,
2013-01-11 23:39:00,23.9,-4.7,29.53,NW,315,2.2,3.1,28,0.00,,,0.00,WUHU216HW,2013-01-12 06:39:00,
2013-01-11 23:40:00,23.9,-4.7,29.54,NW,315,0.2,2.9,28,0.00,,,0.00,WUHU216HW,2013-01-12 06:40:00,
2013-01-11 23:43:00,23.9,-4.7,29.54,NNW,338,0.0,2.9,28,0.00,,,0.00,WUHU216HW,2013-01-12 06:43:00,
2013-01-11 23:44:00,23.8,-4.8,29.54,NW,315,0.0,2.9,28,0.00,,,0.00,WUHU216HW,2013-01-12 06:44:00,
2013-01-11 23:45:00,23.8,-4.8,29.54,WNW,293,0.9,2.2,28,0.00,,,0.00,WUHU216HW,2013-01-12 06:45:00,
2013-01-11 23:48:00,23.8,-4.8,29.53,WNW,293,2.5,2.9,28,0.00,,,0.00,WUHU216HW,2013-01-12 06:48:00,
2013-01-11 23:49:00,23.8,-4.8,29.53,NW,315,2.2,2.9,28,0.00,,,0.00,WUHU216HW,2013-01-12 06:49:00,
2013-01-11 23:51:00,23.8,-4.8,29.53,WNW,293,2.5,3.4,28,0.00,,,0.00,WUHU216HW,2013-01-12 06:51:00,
2013-01-11 23:53:00,23.6,-4.9,29.53,WSW,248,3.4,3.8,28,0.00,,,0.00,WUHU216HW,2013-01-12 06:53:00,
2013-01-11 23:54:00,23.4,-5.1,29.53,West,270,2.7,3.8,28,0.00,,,0.00,WUHU216HW,2013-01-12 06:54:00,
2013-01-11 23:56:00,23.4,-5.1,29.53,West,270,2.5,3.8,28,0.00,,,0.00,WUHU216HW,2013-01-12 06:56:00,
2013-01-11 23:58:00,23.4,-5.1,29.53,NW,315,2.5,3.8,28,0.00,,,0.00,WUHU216HW,2013-01-12 06:58:00,
2013-01-11 23:59:00,23.2,-5.3,29.53,West,270,2.5,3.8,28,0.00,,,0.00,WUHU216HW,2013-01-12 06:59:00,